Time,TemperatureF,DewpointF,PressureIn,WindDirection,WindDirectionDegrees,WindSpeedMPH,WindSpeedGustMPH,Humidity,HourlyPrecipIn,Conditions,Clouds,dailyrainin,SolarRadiationWatts/m^2,SoftwareType,DateUTC
2013-03-13 00:00:00,68.9,66.5,30.00,NNW,344,4.0,12.0,92,0.00,,FEW,0.00,0.00,VWS V14.01,2013-03-13 04:00:00,
2013-03-13 00:05:00,68.8,66.4,30.01,North,355,4.0,10.0,92,0.00,,FEW,0.00,0.00,VWS V14.01,2013-03-13 04:05:00,
2013-03-13 00:10:00,68.8,66.7,30.01,NNW,333,6.0,10.0,93,0.00,,FEW,0.00,0.00,VWS V14.01,2013-03-13 04:10:00,
2013-03-13 00:15:00,68.8,66.7,30.01,NNW,344,8.0,8.0,93,0.00,,FEW,0.00,0.00,VWS V14.01,2013-03-13 04:15:00,
2013-03-13 00:20:00,68.8,66.7,30.01,NNW,345,5.0,10.0,93,0.00,,FEW,0.00,0.00,VWS V14.01,2013-03-13 04:20:00,
2013-03-13 00:25:00,68.7,66.6,30.01,NNW,333,8.0,10.0,93,0.00,,FEW,0.00,0.00,VWS V14.01,2013-03-13 04:25:00,
2013-03-13 00:30:00,68.6,66.5,30.01,NNW,330,9.0,10.0,93,0.00,,FEW,0.00,0.00,VWS V14.01,2013-03-13 04:30:00,
2013-03-13 00:31:00,68.6,66.5,30.01,NNW,336,7.0,13.0,93,0.00,,FEW,0.00,0.00,VWS V14.01,2013-03-13 04:31:00,
2013-03-13 00:35:00,68.5,66.1,30.02,NNE,28,8.0,12.0,92,0.00,,FEW,0.00,0.00,VWS V14.01,2013-03-13 04:35:00,
2013-03-13 00:36:00,68.5,66.1,30.02,NNW,332,8.0,12.0,92,0.00,,FEW,0.00,0.00,VWS V14.01,2013-03-13 04:36:00,
2013-03-13 00:40:00,68.5,66.1,30.02,NNW,340,9.0,12.0,92,0.00,,FEW,0.00,0.00,VWS V14.01,2013-03-13 04:40:00,
2013-03-13 00:41:00,68.4,66.0,30.02,NNW,344,9.0,12.0,92,0.00,,FEW,0.00,0.00,VWS V14.01,2013-03-13 04:41:00,
2013-03-13 00:45:00,68.3,65.9,30.02,North,5,6.0,12.0,92,0.00,,FEW,0.00,0.00,VWS V14.01,2013-03-13 04:45:00,
2013-03-13 00:46:00,68.4,66.0,30.02,NNW,335,6.0,12.0,92,0.00,,FEW,0.00,0.00,VWS V14.01,2013-03-13 04:46:00,
2013-03-13 00:50:00,68.4,66.0,30.02,NNW,344,6.0,12.0,92,0.00,,FEW,0.00,0.00,VWS V14.01,2013-03-13 04:50:00,
2013-03-13 00:51:00,68.4,66.0,30.02,NNW,342,7.0,12.0,92,0.00,,FEW,0.00,0.00,VWS V14.01,2013-03-13 04:51:00,
2013-03-13 00:55:00,68.5,66.1,30.02,NNW,343,6.0,10.0,92,0.00,,FEW,0.00,0.00,VWS V14.01,2013-03-13 04:55:00,
2013-03-13 00:56:00,68.5,66.1,30.02,North,9,6.0,10.0,92,0.00,,FEW,0.00,0.00,VWS V14.01,2013-03-13 04:56:00,
2013-03-13 01:00:00,68.5,66.1,30.02,North,9,5.0,10.0,92,0.00,,FEW,0.00,0.00,VWS V14.01,2013-03-13 05:00:00,
2013-03-13 01:01:00,68.4,66.0,30.02,North,360,6.0,10.0,92,0.00,,FEW,0.00,0.00,VWS V14.01,2013-03-13 05:01:00,
2013-03-13 01:02:00,68.5,66.1,30.02,NW,323,7.0,10.0,92,0.00,,FEW,0.00,0.00,VWS V14.01,2013-03-13 05:02:00,
2013-03-13 01:05:00,68.5,66.1,30.02,North,350,3.0,8.0,92,0.00,,FEW,0.00,0.00,VWS V14.01,2013-03-13 05:05:00,
2013-03-13 01:06:00,68.5,66.1,30.02,NW,319,5.0,9.0,92,0.00,,FEW,0.00,0.00,VWS V14.01,2013-03-13 05:06:00,
2013-03-13 01:07:00,68.5,66.1,30.02,NW,319,5.0,9.0,92,0.00,,FEW,0.00,0.00,VWS V14.01,2013-03-13 05:07:00,
2013-03-13 01:10:00,68.4,65.7,30.02,NW,323,4.0,10.0,91,0.00,,FEW,0.00,0.00,VWS V14.01,2013-03-13 05:10:00,
2013-03-13 01:12:00,68.4,65.7,30.02,NNW,338,5.0,10.0,91,0.00,,FEW,0.00,0.00,VWS V14.01,2013-03-13 05:12:00,
2013-03-13 01:15:00,68.4,65.7,30.02,North,360,5.0,8.0,91,0.00,,FEW,0.00,0.00,VWS V14.01,2013-03-13 05:15:00,
2013-03-13 01:17:00,68.5,65.8,30.00,NNE,14,3.0,8.0,91,0.00,,FEW,0.00,0.00,VWS V14.01,2013-03-13 05:17:00,
2013-03-13 01:20:00,68.5,65.8,30.00,NNW,344,8.0,9.0,91,0.00,,FEW,0.00,0.00,VWS V14.01,2013-03-13 05:20:00,
2013-03-13 01:22:00,68.5,65.8,30.00,NNW,347,9.0,9.0,91,0.00,,FEW,0.00,0.00,VWS V14.01,2013-03-13 05:22:00,
2013-03-13 01:25:00,68.5,65.8,30.00,NNW,344,9.0,9.0,91,0.00,,FEW,0.00,0.00,VWS V14.01,2013-03-13 05:25:00,
2013-03-13 01:27:00,68.5,65.8,30.00,NW,321,6.0,10.0,91,0.00,,FEW,0.00,0.00,VWS V14.01,2013-03-13 05:27:00,
2013-03-13 01:28:00,68.5,65.8,30.00,NW,326,7.0,10.0,91,0.00,,FEW,0.00,0.00,VWS V14.01,2013-03-13 05:28:00,
2013-03-13 01:30:00,68.6,65.9,30.00,North,355,5.0,10.0,91,0.00,,FEW,0.00,0.00,VWS V14.01,2013-03-13 05:30:00,
2013-03-13 01:32:00,68.6,65.9,30.01,North,360,5.0,6.0,91,0.00,,FEW,0.00,0.00,VWS V14.01,2013-03-13 05:32:00,
2013-03-13 01:33:00,68.6,65.9,30.01,North,9,4.0,7.0,91,0.00,,FEW,0.00,0.00,VWS V14.01,2013-03-13 05:33:00,
2013-03-13 01:36:00,68.6,65.9,30.01,NNW,331,3.0,7.0,91,0.00,,FEW,0.00,0.00,VWS V14.01,2013-03-13 05:36:00,
2013-03-13 01:37:00,68.6,65.9,30.01,NNW,347,6.0,7.0,91,0.00,,FEW,0.00,0.00,VWS V14.01,2013-03-13 05:37:00,
2013-03-13 01:38:00,68.6,65.9,30.01,North,5,7.0,8.0,91,0.00,,FEW,0.00,0.00,VWS V14.01,2013-03-13 05:38:00,
2013-03-13 01:41:00,68.6,65.9,30.01,NNE,17,3.0,9.0,91,0.00,,FEW,0.00,0.00,VWS V14.01,2013-03-13 05:41:00,
2013-03-13 01:42:00,68.6,65.9,30.01,North,360,3.0,4.0,91,0.00,,FEW,0.00,0.00,VWS V14.01,2013-03-13 05:42:00,
2013-03-13 01:43:00,68.6,65.9,30.01,WNW,291,6.0,6.0,91,0.00,,FEW,0.00,0.00,VWS V14.01,2013-03-13 05:43:00,
2013-03-13 01:46:00,68.6,65.9,30.01,North,355,5.0,7.0,91,0.00,,FEW,0.00,0.00,VWS V14.01,2013-03-13 05:46:00,
2013-03-13 01:47:00,68.6,65.9,30.01,North,355,5.0,7.0,91,0.00,,FEW,0.00,0.00,VWS V14.01,2013-03-13 05:47:00,
2013-03-13 01:48:00,68.7,66.0,30.01,NNW,342,4.0,8.0,91,0.00,,FEW,0.00,0.00,VWS V14.01,2013-03-13 05:48:00,
2013-03-13 01:51:00,68.7,66.0,30.01,North,349,7.0,8.0,91,0.00,,FEW,0.00,0.00,VWS V14.01,2013-03-13 05:51:00,
2013-03-13 01:52:00,68.7,66.0,30.01,NNE,22,5.0,6.0,91,0.00,,FEW,0.00,0.00,VWS V14.01,2013-03-13 05:52:00,
2013-03-13 01:53:00,68.7,66.0,30.01,NNW,344,5.0,6.0,91,0.00,,FEW,0.00,0.00,VWS V14.01,2013-03-13 05:53:00,
2013-03-13 01:57:00,68.8,65.8,30.01,NNW,347,4.0,10.0,90,0.00,,FEW,0.00,0.00,VWS V14.01,2013-03-13 05:57:00,
2013-03-13 01:58:00,68.8,65.8,30.01,NW,323,3.0,10.0,90,0.00,,FEW,0.00,0.00,VWS V14.01,2013-03-13 05:58:00,
2013-03-13 02:02:00,68.8,65.8,30.01,North,9,5.0,10.0,90,0.00,,FEW,0.00,0.00,VWS V14.01,2013-03-13 06:02:00,
2013-03-13 02:03:00,68.8,65.8,30.01,NW,319,4.0,7.0,90,0.00,,FEW,0.00,0.00,VWS V14.01,2013-03-13 06:03:00,
2013-03-13 02:07:00,68.9,65.8,30.01,NNW,344,5.0,7.0,90,0.00,,FEW,0.00,0.00,VWS V14.01,2013-03-13 06:07:00,
2013-03-13 02:08:00,68.9,65.8,30.01,NNW,348,4.0,8.0,90,0.00,,FEW,0.00,0.00,VWS V14.01,2013-03-13 06:08:00,
2013-03-13 02:12:00,69.0,65.9,30.01,NNW,345,5.0,7.0,90,0.00,,FEW,0.00,0.00,VWS V14.01,2013-03-13 06:12:00,
2013-03-13 02:13:00,69.0,65.9,30.01,NNE,30,3.0,8.0,90,0.00,,FEW,0.00,0.00,VWS V14.01,2013-03-13 06:13:00,
2013-03-13 02:17:00,69.0,65.9,30.00,NNW,346,4.0,8.0,90,0.00,,FEW,0.00,0.00,VWS V14.01,2013-03-13 06:17:00,
2013-03-13 02:18:00,69.0,65.9,30.00,WNW,290,6.0,9.0,90,0.00,,FEW,0.00,0.00,VWS V14.01,2013-03-13 06:18:00,
2013-03-13 02:22:00,69.1,65.7,30.00,North,351,6.0,6.0,89,0.00,,FEW,0.00,0.00,VWS V14.01,2013-03-13 06:22:00,
2013-03-13 02:23:00,69.1,66.1,30.00,North,5,5.0,7.0,90,0.00,,FEW,0.00,0.00,VWS V14.01,2013-03-13 06:23:00,
2013-03-13 02:24:00,69.1,66.1,30.00,North,355,6.0,7.0,90,0.00,,FEW,0.00,0.00,VWS V14.01,2013-03-13 06:24:00,
2013-03-13 02:28:00,69.3,66.2,30.00,North,355,4.0,7.0,90,0.00,,FEW,0.00,0.00,VWS V14.01,2013-03-13 06:28:00,
2013-03-13 02:29:00,69.3,65.9,30.00,North,351,3.0,7.0,89,0.00,,FEW,0.00,0.00,VWS V14.01,2013-03-13 06:29:00,
2013-03-13 02:33:00,69.4,66.0,30.00,NNW,334,5.0,7.0,89,0.00,,FEW,0.00,0.00,VWS V14.01,2013-03-13 06:33:00,
2013-03-13 02:34:00,69.3,65.9,30.00,NNW,342,4.0,7.0,89,0.00,,FEW,0.00,0.00,VWS V14.01,2013-03-13 06:34:00,
2013-03-13 02:38:00,69.3,65.9,30.00,NNW,339,6.0,7.0,89,0.00,,FEW,0.00,0.00,VWS V14.01,2013-03-13 06:38:00,
2013-03-13 02:39:00,69.3,65.9,30.00,NNW,336,5.0,7.0,89,0.00,,FEW,0.00,0.00,VWS V14.01,2013-03-13 06:39:00,
2013-03-13 02:43:00,69.3,65.9,30.00,North,350,2.0,7.0,89,0.00,,FEW,0.00,0.00,VWS V14.01,2013-03-13 06:43:00,
2013-03-13 02:44:00,69.3,65.9,30.00,NNW,343,5.0,7.0,89,0.00,,FEW,0.00,0.00,VWS V14.01,2013-03-13 06:44:00,
2013-03-13 02:48:00,69.3,65.9,29.99,North,11,3.0,7.0,89,0.00,,FEW,0.00,0.00,VWS V14.01,2013-03-13 06:48:00,
2013-03-13 02:49:00,69.3,65.9,29.99,North,355,3.0,7.0,89,0.00,,FEW,0.00,0.00,VWS V14.01,2013-03-13 06:49:00,
2013-03-13 02:53:00,69.4,66.0,29.99,North,5,4.0,5.0,89,0.00,,FEW,0.00,0.00,VWS V14.01,2013-03-13 06:53:00,
2013-03-13 02:54:00,69.4,66.0,29.99,NNW,327,3.0,5.0,89,0.00,,FEW,0.00,0.00,VWS V14.01,2013-03-13 06:54:00,
2013-03-13 02:58:00,69.4,66.0,29.99,North,350,4.0,7.0,89,0.00,,FEW,0.00,0.00,VWS V14.01,2013-03-13 06:58:00,
2013-03-13 02:59:00,69.4,66.0,29.99,NNW,327,3.0,7.0,89,0.00,,FEW,0.00,0.00,VWS V14.01,2013-03-13 06:59:00,
2013-03-13 03:03:00,69.4,66.0,29.99,North,360,4.0,6.0,89,0.00,,FEW,0.00,0.00,VWS V14.01,2013-03-13 07:03:00,
2013-03-13 03:04:00,69.4,66.0,29.99,North,5,4.0,6.0,89,0.00,,FEW,0.00,0.00,VWS V14.01,2013-03-13 07:04:00,
2013-03-13 03:05:00,69.4,66.0,29.99,NNW,339,2.0,6.0,89,0.00,,FEW,0.00,0.00,VWS V14.01,2013-03-13 07:05:00,
2013-03-13 03:08:00,69.4,66.0,29.99,NNW,336,5.0,9.0,89,0.00,,FEW,0.00,0.00,VWS V14.01,2013-03-13 07:08:00,
2013-03-13 03:09:00,69.4,66.0,29.99,North,355,7.0,9.0,89,0.00,,FEW,0.00,0.00,VWS V14.01,2013-03-13 07:09:00,
2013-03-13 03:10:00,69.4,66.0,29.99,NNW,336,4.0,9.0,89,0.00,,FEW,0.00,0.00,VWS V14.01,2013-03-13 07:10:00,
2013-03-13 03:13:00,69.4,66.0,29.99,NNW,345,7.0,7.0,89,0.00,,FEW,0.00,0.00,VWS V14.01,2013-03-13 07:13:00,
2013-03-13 03:14:00,69.4,66.0,29.99,North,351,7.0,7.0,89,0.00,,FEW,0.00,0.00,VWS V14.01,2013-03-13 07:14:00,
2013-03-13 03:15:00,69.4,66.0,29.99,NW,322,6.0,10.0,89,0.00,,FEW,0.00,0.00,VWS V14.01,2013-03-13 07:15:00,
2013-03-13 03:19:00,69.2,65.8,29.99,NNW,327,4.0,10.0,89,0.00,,FEW,0.00,0.00,VWS V14.01,2013-03-13 07:19:00,
2013-03-13 03:20:00,69.1,65.7,29.99,NNW,348,5.0,10.0,89,0.00,,FEW,0.00,0.00,VWS V14.01,2013-03-13 07:20:00,
2013-03-13 03:24:00,69.0,65.6,29.99,NNE,17,4.0,11.0,89,0.00,,FEW,0.00,0.00,VWS V14.01,2013-03-13 07:24:00,
2013-03-13 03:25:00,69.0,65.6,29.99,NW,314,8.0,11.0,89,0.00,,FEW,0.00,0.00,VWS V14.01,2013-03-13 07:25:00,
2013-03-13 03:28:00,68.8,65.4,29.99,NNW,334,6.0,11.0,89,0.00,,FEW,0.00,0.00,VWS V14.01,2013-03-13 07:28:00,
2013-03-13 03:29:00,68.8,65.4,29.99,North,355,4.0,11.0,89,0.00,,FEW,0.00,0.00,VWS V14.01,2013-03-13 07:29:00,
2013-03-13 03:30:00,68.8,65.4,29.99,North,355,7.0,11.0,89,0.00,,FEW,0.00,0.00,VWS V14.01,2013-03-13 07:30:00,
2013-03-13 03:34:00,68.6,65.2,29.99,NNW,344,5.0,9.0,89,0.00,,FEW,0.00,0.00,VWS V14.01,2013-03-13 07:34:00,
2013-03-13 03:35:00,68.6,65.2,29.99,NW,319,7.0,9.0,89,0.00,,FEW,0.00,0.00,VWS V14.01,2013-03-13 07:35:00,
2013-03-13 03:39:00,68.5,65.1,29.99,NNW,339,6.0,9.0,89,0.00,,FEW,0.00,0.00,VWS V14.01,2013-03-13 07:39:00,
2013-03-13 03:41:00,68.5,65.1,29.99,North,355,4.0,9.0,89,0.00,,FEW,0.00,0.00,VWS V14.01,2013-03-13 07:41:00,
2013-03-13 03:44:00,68.5,65.1,29.99,NNE,19,5.0,11.0,89,0.00,,FEW,0.00,0.00,VWS V14.01,2013-03-13 07:44:00,
2013-03-13 03:46:00,68.4,65.0,29.99,NW,319,5.0,11.0,89,0.00,,FEW,0.00,0.00,VWS V14.01,2013-03-13 07:46:00,
2013-03-13 03:49:00,68.3,64.9,29.99,NNW,342,6.0,11.0,89,0.00,,FEW,0.00,0.00,VWS V14.01,2013-03-13 07:49:00,
2013-03-13 03:50:00,68.2,64.8,29.99,North,10,3.0,11.0,89,0.00,,FEW,0.00,0.00,VWS V14.01,2013-03-13 07:50:00,
2013-03-13 03:51:00,68.2,64.8,29.99,North,11,10.0,11.0,89,0.00,,FEW,0.00,0.00,VWS V14.01,2013-03-13 07:51:00,
2013-03-13 03:54:00,68.0,64.6,29.99,NNW,336,6.0,11.0,89,0.00,,FEW,0.00,0.00,VWS V14.01,2013-03-13 07:54:00,
2013-03-13 03:55:00,68.0,64.6,29.99,NW,311,6.0,11.0,89,0.00,,FEW,0.00,0.00,VWS V14.01,2013-03-13 07:55:00,
2013-03-13 03:56:00,68.0,64.6,29.99,NNE,25,7.0,11.0,89,0.00,,FEW,0.00,0.00,VWS V14.01,2013-03-13 07:56:00,
2013-03-13 03:59:00,68.0,64.6,29.99,North,5,8.0,11.0,89,0.00,,FEW,0.00,0.00,VWS V14.01,2013-03-13 07:59:00,
2013-03-13 04:00:00,68.0,64.6,29.99,NW,325,5.0,11.0,89,0.00,,FEW,0.00,0.00,VWS V14.01,2013-03-13 08:00:00,
2013-03-13 04:01:00,67.9,64.5,29.99,NNW,345,9.0,11.0,89,0.00,,FEW,0.00,0.00,VWS V14.01,2013-03-13 08:01:00,
2013-03-13 04:04:00,67.8,64.4,29.99,NNW,328,8.0,11.0,89,0.00,,FEW,0.00,0.00,VWS V14.01,2013-03-13 08:04:00,
2013-03-13 04:08:00,67.7,64.0,29.99,North,360,5.0,11.0,88,0.00,,FEW,0.00,0.00,VWS V14.01,2013-03-13 08:08:00,
2013-03-13 04:09:00,67.7,64.0,29.99,North,355,13.0,13.0,88,0.00,,FEW,0.00,0.00,VWS V14.01,2013-03-13 08:09:00,
2013-03-13 04:13:00,67.5,63.8,29.99,NNW,338,3.0,10.0,88,0.00,,FEW,0.00,0.00,VWS V14.01,2013-03-13 08:13:00,
2013-03-13 04:14:00,67.4,63.7,29.99,NW,319,8.0,10.0,88,0.00,,FEW,0.00,0.00,VWS V14.01,2013-03-13 08:14:00,
2013-03-13 04:18:00,67.3,63.6,29.99,North,5,8.0,11.0,88,0.00,,FEW,0.00,0.00,VWS V14.01,2013-03-13 08:18:00,
2013-03-13 04:19:00,67.2,63.2,29.99,North,11,4.0,11.0,87,0.00,,FEW,0.00,0.00,VWS V14.01,2013-03-13 08:19:00,
2013-03-13 04:23:00,67.1,63.1,29.99,NNE,13,5.0,11.0,87,0.00,,FEW,0.00,0.00,VWS V14.01,2013-03-13 08:23:00,
2013-03-13 04:24:00,67.1,63.1,29.99,NNW,338,5.0,11.0,87,0.00,,FEW,0.00,0.00,VWS V14.01,2013-03-13 08:24:00,
2013-03-13 04:25:00,67.1,62.8,29.99,WNW,294,6.0,11.0,86,0.00,,FEW,0.00,0.00,VWS V14.01,2013-03-13 08:25:00,
2013-03-13 04:28:00,67.2,63.2,29.99,NNW,329,4.0,11.0,87,0.00,,FEW,0.00,0.00,VWS V14.01,2013-03-13 08:28:00,
2013-03-13 04:29:00,67.2,63.2,29.99,NNW,329,4.0,11.0,87,0.00,,FEW,0.00,0.00,VWS V14.01,2013-03-13 08:29:00,
2013-03-13 04:30:00,67.2,63.2,29.99,NNW,341,11.0,11.0,87,0.00,,FEW,0.00,0.00,VWS V14.01,2013-03-13 08:30:00,
2013-03-13 04:33:00,67.3,63.0,29.99,NNW,347,6.0,10.0,86,0.00,,FEW,0.00,0.00,VWS V14.01,2013-03-13 08:33:00,
2013-03-13 04:34:00,67.3,63.0,29.99,NNW,347,6.0,10.0,86,0.00,,FEW,0.00,0.00,VWS V14.01,2013-03-13 08:34:00,
2013-03-13 04:35:00,67.3,63.0,29.99,North,349,6.0,10.0,86,0.00,,FEW,0.00,0.00,VWS V14.01,2013-03-13 08:35:00,
2013-03-13 04:39:00,67.3,63.0,29.99,North,5,8.0,10.0,86,0.00,,FEW,0.00,0.00,VWS V14.01,2013-03-13 08:39:00,
2013-03-13 04:40:00,67.3,62.6,29.99,North,355,9.0,12.0,85,0.00,,FEW,0.00,0.00,VWS V14.01,2013-03-13 08:40:00,
2013-03-13 04:44:00,67.2,62.5,29.99,North,11,6.0,10.0,85,0.00,,FEW,0.00,0.00,VWS V14.01,2013-03-13 08:44:00,
2013-03-13 04:45:00,67.2,62.5,29.99,North,355,6.0,10.0,85,0.00,,FEW,0.00,0.00,VWS V14.01,2013-03-13 08:45:00,
2013-03-13 04:49:00,67.0,61.7,29.99,NNW,337,4.0,13.0,83,0.00,,FEW,0.00,0.00,VWS V14.01,2013-03-13 08:49:00,
2013-03-13 04:50:00,67.0,61.7,29.99,NNW,343,10.0,13.0,83,0.00,,FEW,0.00,0.00,VWS V14.01,2013-03-13 08:50:00,
2013-03-13 04:54:00,67.0,61.3,29.99,North,350,8.0,10.0,82,0.00,,FEW,0.00,0.00,VWS V14.01,2013-03-13 08:54:00,
2013-03-13 04:55:00,67.0,61.3,29.99,NW,324,7.0,10.0,82,0.00,,FEW,0.00,0.00,VWS V14.01,2013-03-13 08:55:00,
2013-03-13 04:56:00,67.0,61.3,29.99,NNW,329,9.0,11.0,82,0.00,,FEW,0.00,0.00,VWS V14.01,2013-03-13 08:56:00,
2013-03-13 04:59:00,67.1,61.4,29.99,North,5,10.0,11.0,82,0.00,,FEW,0.00,0.00,VWS V14.01,2013-03-13 08:59:00,
2013-03-13 05:00:00,67.1,61.1,29.99,NNW,333,6.0,11.0,81,0.00,,FEW,0.00,0.00,VWS V14.01,2013-03-13 09:00:00,
2013-03-13 05:01:00,67.1,61.1,29.99,North,350,5.0,11.0,81,0.00,,FEW,0.00,0.00,VWS V14.01,2013-03-13 09:01:00,
2013-03-13 05:04:00,67.1,61.1,29.99,NNW,338,9.0,12.0,81,0.00,,FEW,0.00,0.00,VWS V14.01,2013-03-13 09:04:00,
2013-03-13 05:05:00,67.1,61.1,29.99,NW,313,8.0,12.0,81,0.00,,FEW,0.00,0.00,VWS V14.01,2013-03-13 09:05:00,
2013-03-13 05:07:00,67.2,61.2,29.99,NNE,15,3.0,12.0,81,0.00,,FEW,0.00,0.00,VWS V14.01,2013-03-13 09:07:00,
2013-03-13 05:09:00,67.2,60.8,29.99,NNW,328,9.0,12.0,80,0.00,,FEW,0.00,0.00,VWS V14.01,2013-03-13 09:09:00,
2013-03-13 05:10:00,67.2,60.5,29.99,North,360,8.0,12.0,79,0.00,,FEW,0.00,0.00,VWS V14.01,2013-03-13 09:10:00,
2013-03-13 05:13:00,67.2,60.5,29.99,NW,321,12.0,12.0,79,0.00,,FEW,0.00,0.00,VWS V14.01,2013-03-13 09:13:00,
2013-03-13 05:14:00,67.2,60.5,29.99,NNW,336,8.0,13.0,79,0.00,,FEW,0.00,0.00,VWS V14.01,2013-03-13 09:14:00,
2013-03-13 05:16:00,67.2,60.5,29.99,North,9,8.0,13.0,79,0.00,,FEW,0.00,0.00,VWS V14.01,2013-03-13 09:16:00,
2013-03-13 05:18:00,67.2,60.5,29.99,NNW,343,10.0,13.0,79,0.00,,FEW,0.00,0.00,VWS V14.01,2013-03-13 09:18:00,
2013-03-13 05:19:00,67.2,60.5,29.99,NNW,341,4.0,13.0,79,0.00,,FEW,0.00,0.00,VWS V14.01,2013-03-13 09:19:00,
2013-03-13 05:20:00,67.2,60.5,29.99,NW,315,10.0,13.0,79,0.00,,FEW,0.00,0.00,VWS V14.01,2013-03-13 09:20:00,
2013-03-13 05:21:00,67.1,60.4,29.99,NNE,27,6.0,13.0,79,0.00,,FEW,0.00,0.00,VWS V14.01,2013-03-13 09:21:00,
2013-03-13 05:24:00,67.0,59.2,29.99,North,355,8.0,12.0,76,0.00,,FEW,0.00,0.00,VWS V14.01,2013-03-13 09:24:00,
2013-03-13 05:25:00,66.9,59.1,29.99,NE,49,4.0,12.0,76,0.00,,FEW,0.00,0.00,VWS V14.01,2013-03-13 09:25:00,
2013-03-13 05:26:00,66.8,59.0,29.99,North,355,7.0,12.0,76,0.00,,FEW,0.00,0.00,VWS V14.01,2013-03-13 09:26:00,
2013-03-13 05:29:00,66.8,58.6,29.99,NNW,343,9.0,14.0,75,0.00,,FEW,0.00,0.00,VWS V14.01,2013-03-13 09:29:00,
2013-03-13 05:30:00,66.8,58.3,29.99,North,355,6.0,14.0,74,0.00,,FEW,0.00,0.00,VWS V14.01,2013-03-13 09:30:00,
2013-03-13 05:31:00,66.8,58.3,29.99,NNW,348,9.0,14.0,74,0.00,,FEW,0.00,0.00,VWS V14.01,2013-03-13 09:31:00,
2013-03-13 05:34:00,66.9,58.3,29.99,North,5,5.0,8.0,74,0.00,,FEW,0.00,0.00,VWS V14.01,2013-03-13 09:34:00,
2013-03-13 05:35:00,66.9,58.3,29.99,North,5,9.0,9.0,74,0.00,,FEW,0.00,0.00,VWS V14.01,2013-03-13 09:35:00,
2013-03-13 05:36:00,66.9,58.0,29.99,NW,320,9.0,12.0,73,0.00,,FEW,0.00,0.00,VWS V14.01,2013-03-13 09:36:00,
2013-03-13 05:39:00,66.9,58.0,29.99,North,360,5.0,12.0,73,0.00,,FEW,0.00,0.00,VWS V14.01,2013-03-13 09:39:00,
2013-03-13 05:40:00,66.9,58.0,29.99,NNE,26,6.0,12.0,73,0.00,,FEW,0.00,0.00,VWS V14.01,2013-03-13 09:40:00,
2013-03-13 05:42:00,66.9,58.0,29.99,North,10,6.0,12.0,73,0.00,,FEW,0.00,0.00,VWS V14.01,2013-03-13 09:42:00,
2013-03-13 05:44:00,67.0,58.1,29.99,NW,324,10.0,10.0,73,0.00,,FEW,0.00,0.00,VWS V14.01,2013-03-13 09:44:00,
2013-03-13 05:45:00,67.0,58.1,29.99,North,5,7.0,11.0,73,0.00,,FEW,0.00,0.00,VWS V14.01,2013-03-13 09:45:00,
2013-03-13 05:47:00,67.0,58.5,29.99,North,5,7.0,11.0,74,0.00,,FEW,0.00,0.00,VWS V14.01,2013-03-13 09:47:00,
2013-03-13 05:49:00,67.1,58.9,29.99,NNE,20,4.0,11.0,75,0.00,,FEW,0.00,0.00,VWS V14.01,2013-03-13 09:49:00,
2013-03-13 05:50:00,67.1,58.9,29.99,NNW,342,10.0,11.0,75,0.00,,FEW,0.00,0.00,VWS V14.01,2013-03-13 09:50:00,
2013-03-13 05:52:00,67.2,59.4,29.99,North,5,5.0,5.0,76,0.00,,FEW,0.00,0.00,VWS V14.01,2013-03-13 09:52:00,
2013-03-13 05:54:00,67.2,59.4,29.99,North,355,6.0,13.0,76,0.00,,FEW,0.00,0.00,VWS V14.01,2013-03-13 09:54:00,
2013-03-13 05:55:00,67.2,59.4,29.99,North,11,8.0,13.0,76,0.00,,FEW,0.00,0.00,VWS V14.01,2013-03-13 09:55:00,
2013-03-13 05:57:00,67.2,59.4,29.99,NNW,344,5.0,14.0,76,0.00,,FEW,0.00,0.00,VWS V14.01,2013-03-13 09:57:00,
2013-03-13 05:59:00,67.2,59.8,29.99,North,355,13.0,14.0,77,0.00,,FEW,0.00,0.00,VWS V14.01,2013-03-13 09:59:00,
2013-03-13 06:00:00,67.2,59.8,29.99,NNW,341,11.0,16.0,77,0.00,,FEW,0.00,0.00,VWS V14.01,2013-03-13 10:00:00,
2013-03-13 06:02:00,67.2,60.1,30.00,NNW,348,11.0,11.0,78,0.00,,FEW,0.00,0.00,VWS V14.01,2013-03-13 10:02:00,
2013-03-13 06:04:00,67.2,60.1,30.00,NNW,334,8.0,13.0,78,0.00,,FEW,0.00,0.00,VWS V14.01,2013-03-13 10:04:00,
2013-03-13 06:05:00,67.1,60.0,30.00,NW,325,7.0,13.0,78,0.00,,FEW,0.00,0.00,VWS V14.01,2013-03-13 10:05:00,
2013-03-13 06:07:00,67.1,60.4,30.00,North,9,8.0,13.0,79,0.00,,FEW,0.00,0.00,VWS V14.01,2013-03-13 10:07:00,
2013-03-13 06:09:00,67.1,60.4,30.00,NNE,13,6.0,13.0,79,0.00,,FEW,0.00,0.00,VWS V14.01,2013-03-13 10:09:00,
2013-03-13 06:10:00,67.0,60.3,30.00,NW,319,8.0,13.0,79,0.00,,FEW,0.00,0.00,VWS V14.01,2013-03-13 10:10:00,
2013-03-13 06:12:00,66.9,60.2,30.00,NNW,333,11.0,15.0,79,0.00,,FEW,0.00,0.00,VWS V14.01,2013-03-13 10:12:00,
2013-03-13 06:15:00,66.8,60.1,30.00,NNW,340,9.0,15.0,79,0.00,,FEW,0.00,0.00,VWS V14.01,2013-03-13 10:15:00,
2013-03-13 06:17:00,66.7,60.0,30.00,North,10,8.0,15.0,79,0.00,,FEW,0.00,0.00,VWS V14.01,2013-03-13 10:17:00,
2013-03-13 06:20:00,66.5,60.2,30.00,North,5,9.0,15.0,80,0.00,,FEW,0.00,0.00,VWS V14.01,2013-03-13 10:20:00,
2013-03-13 06:22:00,66.4,60.0,30.00,NW,304,6.0,12.0,80,0.00,,FEW,0.00,0.00,VWS V14.01,2013-03-13 10:22:00,
2013-03-13 06:25:00,66.2,60.2,30.00,North,349,10.0,15.0,81,0.00,,FEW,0.00,0.00,VWS V14.01,2013-03-13 10:25:00,
2013-03-13 06:28:00,65.9,59.6,30.00,NNW,327,8.0,15.0,80,0.00,,FEW,0.00,0.00,VWS V14.01,2013-03-13 10:28:00,
2013-03-13 06:30:00,65.8,59.5,30.00,NW,304,9.0,15.0,80,0.00,,FEW,0.00,0.00,VWS V14.01,2013-03-13 10:30:00,
2013-03-13 06:33:00,65.7,59.7,30.02,NNW,340,10.0,13.0,81,0.00,,FEW,0.00,0.00,VWS V14.01,2013-03-13 10:33:00,
2013-03-13 06:35:00,65.5,59.2,30.02,North,355,12.0,16.0,80,0.00,,FEW,0.00,0.00,VWS V14.01,2013-03-13 10:35:00,
2013-03-13 06:38:00,65.3,59.0,30.02,NNW,340,15.0,16.0,80,0.00,,FEW,0.00,0.00,VWS V14.01,2013-03-13 10:38:00,
2013-03-13 06:40:00,65.2,58.9,30.02,NNE,19,7.0,16.0,80,0.00,,FEW,0.00,0.00,VWS V14.01,2013-03-13 10:40:00,
2013-03-13 06:41:00,65.2,58.9,30.02,NW,321,6.0,16.0,80,0.00,,FEW,0.00,0.00,VWS V14.01,2013-03-13 10:41:00,
2013-03-13 06:43:00,65.3,59.3,30.02,NNW,346,7.0,13.0,81,0.00,,FEW,0.00,0.00,VWS V14.01,2013-03-13 10:43:00,
2013-03-13 06:45:00,65.3,59.3,30.02,NNW,329,9.0,13.0,81,0.00,,FEW,0.00,0.00,VWS V14.01,2013-03-13 10:45:00,
2013-03-13 06:46:00,65.3,59.3,30.02,NW,317,11.0,13.0,81,0.00,,FEW,0.00,0.00,VWS V14.01,2013-03-13 10:46:00,
2013-03-13 06:48:00,65.4,59.8,30.02,North,350,9.0,13.0,82,0.00,,FEW,0.00,0.00,VWS V14.01,2013-03-13 10:48:00,
2013-03-13 06:50:00,65.4,59.8,30.02,NNW,343,11.0,17.0,82,0.00,,FEW,0.00,0.00,VWS V14.01,2013-03-13 10:50:00,
2013-03-13 06:51:00,65.4,59.8,30.02,North,350,10.0,17.0,82,0.00,,FEW,0.00,0.00,VWS V14.01,2013-03-13 10:51:00,
2013-03-13 06:53:00,65.3,59.7,30.02,North,355,12.0,15.0,82,0.00,,FEW,0.00,0.00,VWS V14.01,2013-03-13 10:53:00,
2013-03-13 06:56:00,65.0,59.0,30.02,NNE,19,10.0,15.0,81,0.00,,FEW,0.00,0.00,VWS V14.01,2013-03-13 10:56:00,
2013-03-13 06:58:00,64.9,58.6,30.02,NE,34,6.0,15.0,80,0.00,,FEW,0.00,0.00,VWS V14.01,2013-03-13 10:58:00,
2013-03-13 07:01:00,64.8,57.8,30.02,North,360,12.0,15.0,78,0.00,,FEW,0.00,0.00,VWS V14.01,2013-03-13 11:01:00,
2013-03-13 07:03:00,64.6,56.5,30.02,North,355,8.0,12.0,75,0.00,,FEW,0.00,0.00,VWS V14.01,2013-03-13 11:03:00,
2013-03-13 07:06:00,64.4,54.8,30.02,North,360,8.0,14.0,71,0.00,,FEW,0.00,0.00,VWS V14.01,2013-03-13 11:06:00,
2013-03-13 07:07:00,64.4,54.8,30.02,North,11,11.0,14.0,71,0.00,,FEW,0.00,0.00,VWS V14.01,2013-03-13 11:07:00,
2013-03-13 07:09:00,64.4,54.4,30.02,NNW,338,7.0,14.0,70,0.00,,FEW,0.00,0.00,VWS V14.01,2013-03-13 11:09:00,
2013-03-13 07:12:00,64.4,54.4,30.02,North,349,8.0,14.0,70,0.00,,FEW,0.00,0.00,VWS V14.01,2013-03-13 11:12:00,
2013-03-13 07:14:00,64.5,54.5,30.02,NNW,346,6.0,15.0,70,0.00,,FEW,0.00,0.00,VWS V14.01,2013-03-13 11:14:00,
2013-03-13 07:17:00,64.7,55.5,30.02,NNE,15,6.0,15.0,72,0.00,,FEW,0.00,0.00,VWS V14.01,2013-03-13 11:17:00,
2013-03-13 07:19:00,64.7,55.5,30.02,North,355,11.0,15.0,72,0.00,,FEW,0.00,0.00,VWS V14.01,2013-03-13 11:19:00,
2013-03-13 07:22:00,64.8,55.6,30.02,NNW,347,7.0,7.0,72,0.00,,FEW,0.00,0.00,VWS V14.01,2013-03-13 11:22:00,
2013-03-13 07:24:00,64.8,55.6,30.02,North,5,6.0,10.0,72,0.00,,FEW,0.00,0.00,VWS V14.01,2013-03-13 11:24:00,
2013-03-13 07:27:00,64.9,56.0,30.02,NNE,17,5.0,11.0,73,0.00,,FEW,0.00,0.00,VWS V14.01,2013-03-13 11:27:00,
2013-03-13 07:29:00,64.9,56.4,30.02,NNW,347,12.0,12.0,74,0.00,,FEW,0.00,0.00,VWS V14.01,2013-03-13 11:29:00,
2013-03-13 07:32:00,64.9,56.4,30.03,NW,320,10.0,11.0,74,0.00,,FEW,0.00,0.00,VWS V14.01,2013-03-13 11:32:00,
2013-03-13 07:35:00,64.7,55.9,30.03,North,355,6.0,14.0,73,0.00,,FEW,0.00,0.00,VWS V14.01,2013-03-13 11:35:00,
2013-03-13 07:37:00,64.5,54.9,30.03,North,5,5.0,15.0,71,0.00,,FEW,0.00,0.00,VWS V14.01,2013-03-13 11:37:00,
2013-03-13 07:38:00,64.5,54.9,30.03,NNE,20,5.0,15.0,71,0.00,,FEW,0.00,0.00,VWS V14.01,2013-03-13 11:38:00,
2013-03-13 07:40:00,64.5,55.3,30.03,NNE,30,13.0,15.0,72,0.00,,FEW,0.00,5.00,VWS V14.01,2013-03-13 11:40:00,
2013-03-13 07:42:00,64.5,55.3,30.03,NNE,17,7.0,14.0,72,0.00,,FEW,0.00,7.00,VWS V14.01,2013-03-13 11:42:00,
2013-03-13 07:43:00,64.4,55.2,30.03,NNE,17,9.0,14.0,72,0.00,,FEW,0.00,7.00,VWS V14.01,2013-03-13 11:43:00,
2013-03-13 07:45:00,64.4,55.6,30.03,NW,323,5.0,14.0,73,0.00,,FEW,0.00,11.00,VWS V14.01,2013-03-13 11:45:00,
2013-03-13 07:47:00,64.3,55.8,30.04,NNE,14,9.0,14.0,74,0.00,,FEW,0.00,12.00,VWS V14.01,2013-03-13 11:47:00,
2013-03-13 07:48:00,64.2,55.8,30.04,NNW,346,9.0,14.0,74,0.00,,FEW,0.00,12.00,VWS V14.01,2013-03-13 11:48:00,
2013-03-13 07:50:00,64.1,56.0,30.04,North,355,8.0,14.0,75,0.00,,FEW,0.00,16.00,VWS V14.01,2013-03-13 11:50:00,
2013-03-13 07:52:00,64.0,55.9,30.04,NNW,335,9.0,10.0,75,0.00,,FEW,0.00,19.00,VWS V14.01,2013-03-13 11:52:00,
2013-03-13 07:53:00,64.0,55.9,30.04,North,5,11.0,11.0,75,0.00,,FEW,0.00,19.00,VWS V14.01,2013-03-13 11:53:00,
2013-03-13 07:55:00,63.9,56.2,30.04,NNE,29,12.0,13.0,76,0.00,,FEW,0.00,23.00,VWS V14.01,2013-03-13 11:55:00,
2013-03-13 07:57:00,63.8,56.1,30.04,North,355,9.0,13.0,76,0.00,,FEW,0.00,26.00,VWS V14.01,2013-03-13 11:57:00,
2013-03-13 07:58:00,63.8,56.1,30.04,North,360,14.0,14.0,76,0.00,,FEW,0.00,26.00,VWS V14.01,2013-03-13 11:58:00,
2013-03-13 08:00:00,63.7,56.4,30.04,NNE,32,11.0,15.0,77,0.00,,FEW,0.00,32.00,VWS V14.01,2013-03-13 12:00:00,
2013-03-13 08:02:00,63.6,56.6,30.05,North,11,13.0,13.0,78,0.00,,FEW,0.00,35.00,VWS V14.01,2013-03-13 12:02:00,
2013-03-13 08:03:00,63.6,56.6,30.05,North,350,12.0,13.0,78,0.00,,FEW,0.00,35.00,VWS V14.01,2013-03-13 12:03:00,
2013-03-13 08:06:00,63.6,57.0,30.05,NNE,19,12.0,14.0,79,0.00,,FEW,0.00,39.00,VWS V14.01,2013-03-13 12:06:00,
2013-03-13 08:08:00,63.6,57.0,30.05,NNE,27,7.0,14.0,79,0.00,,FEW,0.00,42.00,VWS V14.01,2013-03-13 12:08:00,
2013-03-13 08:11:00,63.6,57.3,30.05,NE,35,9.0,14.0,80,0.00,,FEW,0.00,47.00,VWS V14.01,2013-03-13 12:11:00,
2013-03-13 08:13:00,63.6,57.3,30.05,NNE,23,12.0,12.0,80,0.00,,FEW,0.00,51.00,VWS V14.01,2013-03-13 12:13:00,
2013-03-13 08:14:00,63.6,57.3,30.05,NNE,22,7.0,12.0,80,0.00,,FEW,0.00,53.00,VWS V14.01,2013-03-13 12:14:00,
2013-03-13 08:17:00,63.4,57.1,30.05,North,5,11.0,16.0,80,0.00,,FEW,0.00,60.00,VWS V14.01,2013-03-13 12:17:00,
2013-03-13 08:18:00,63.3,57.0,30.05,NNE,25,11.0,16.0,80,0.00,,FEW,0.00,62.00,VWS V14.01,2013-03-13 12:18:00,
2013-03-13 08:19:00,63.3,57.0,30.05,NNE,22,8.0,16.0,80,0.00,,FEW,0.00,62.00,VWS V14.01,2013-03-13 12:19:00,
2013-03-13 08:22:00,63.2,56.9,30.05,NNW,334,8.0,16.0,80,0.00,,FEW,0.00,63.00,VWS V14.01,2013-03-13 12:22:00,
2013-03-13 08:23:00,63.2,57.3,30.05,North,350,8.0,11.0,81,0.00,,FEW,0.00,67.00,VWS V14.01,2013-03-13 12:23:00,
2013-03-13 08:24:00,63.2,57.3,30.05,North,5,13.0,15.0,81,0.00,,FEW,0.00,69.00,VWS V14.01,2013-03-13 12:24:00,
2013-03-13 08:27:00,63.1,57.2,30.05,NNE,25,4.0,15.0,81,0.00,,FEW,0.00,74.00,VWS V14.01,2013-03-13 12:27:00,
2013-03-13 08:28:00,63.1,57.2,30.05,NNE,30,12.0,15.0,81,0.00,,FEW,0.00,74.00,VWS V14.01,2013-03-13 12:28:00,
2013-03-13 08:29:00,63.1,57.2,30.05,NNE,26,4.0,15.0,81,0.00,,FEW,0.00,74.00,VWS V14.01,2013-03-13 12:29:00,
2013-03-13 08:32:00,63.1,57.5,30.06,NNE,13,6.0,15.0,82,0.00,,FEW,0.00,67.00,VWS V14.01,2013-03-13 12:32:00,
2013-03-13 08:33:00,63.1,57.5,30.06,NNW,347,8.0,15.0,82,0.00,,FEW,0.00,69.00,VWS V14.01,2013-03-13 12:33:00,
2013-03-13 08:34:00,63.1,57.5,30.06,North,355,3.0,15.0,82,0.00,,FEW,0.00,69.00,VWS V14.01,2013-03-13 12:34:00,
2013-03-13 08:37:00,63.1,57.5,30.06,North,5,8.0,15.0,82,0.00,,FEW,0.00,79.00,VWS V14.01,2013-03-13 12:37:00,
2013-03-13 08:38:00,63.1,57.5,30.06,North,355,9.0,15.0,82,0.00,,FEW,0.00,83.00,VWS V14.01,2013-03-13 12:38:00,
2013-03-13 08:39:00,63.0,57.4,30.06,North,355,9.0,15.0,82,0.00,,FEW,0.00,88.00,VWS V14.01,2013-03-13 12:39:00,
2013-03-13 08:42:00,63.0,57.8,30.06,NNE,32,12.0,14.0,83,0.00,,FEW,0.00,127.00,VWS V14.01,2013-03-13 12:42:00,
2013-03-13 08:43:00,63.0,57.8,30.06,NNE,16,8.0,15.0,83,0.00,,FEW,0.00,127.00,VWS V14.01,2013-03-13 12:43:00,
2013-03-13 08:44:00,63.0,57.8,30.06,NNE,32,16.0,16.0,83,0.00,,FEW,0.00,121.00,VWS V14.01,2013-03-13 12:44:00,
2013-03-13 08:47:00,63.0,58.1,30.06,NNW,344,15.0,17.0,84,0.00,,FEW,0.00,118.00,VWS V14.01,2013-03-13 12:47:00,
2013-03-13 08:48:00,63.1,58.2,30.06,NNE,28,12.0,17.0,84,0.00,,FEW,0.00,114.00,VWS V14.01,2013-03-13 12:48:00,
2013-03-13 08:49:00,63.1,58.2,30.06,NNE,13,10.0,17.0,84,0.00,,FEW,0.00,114.00,VWS V14.01,2013-03-13 12:49:00,
2013-03-13 08:52:00,63.2,58.3,30.06,North,5,7.0,11.0,84,0.00,,FEW,0.00,135.00,VWS V14.01,2013-03-13 12:52:00,
2013-03-13 08:53:00,63.2,58.3,30.06,North,360,8.0,13.0,84,0.00,,FEW,0.00,141.00,VWS V14.01,2013-03-13 12:53:00,
2013-03-13 08:54:00,63.2,58.6,30.06,North,355,10.0,13.0,85,0.00,,FEW,0.00,141.00,VWS V14.01,2013-03-13 12:54:00,
2013-03-13 08:57:00,63.1,58.5,30.06,NW,321,11.0,17.0,85,0.00,,FEW,0.00,125.00,VWS V14.01,2013-03-13 12:57:00,
2013-03-13 08:58:00,63.1,58.5,30.06,NNE,33,6.0,17.0,85,0.00,,FEW,0.00,139.00,VWS V14.01,2013-03-13 12:58:00,
2013-03-13 08:59:00,63.1,58.5,30.06,North,355,14.0,17.0,85,0.00,,FEW,0.00,207.00,VWS V14.01,2013-03-13 12:59:00,
2013-03-13 09:03:00,63.2,58.6,30.07,NNE,17,11.0,13.0,85,0.00,,FEW,0.00,188.00,VWS V14.01,2013-03-13 13:03:00,
2013-03-13 09:04:00,63.2,58.6,30.07,NNW,340,9.0,16.0,85,0.00,,FEW,0.00,199.00,VWS V14.01,2013-03-13 13:04:00,
2013-03-13 09:08:00,63.3,58.4,30.07,NNE,14,11.0,16.0,84,0.00,,FEW,0.00,142.00,VWS V14.01,2013-03-13 13:08:00,
2013-03-13 09:09:00,63.4,58.5,30.07,NNE,18,11.0,16.0,84,0.00,,FEW,0.00,142.00,VWS V14.01,2013-03-13 13:09:00,
2013-03-13 09:10:00,63.4,58.5,30.07,NNW,341,11.0,16.0,84,0.00,,FEW,0.00,178.00,VWS V14.01,2013-03-13 13:10:00,
2013-03-13 09:13:00,63.4,58.5,30.07,North,355,12.0,14.0,84,0.00,,FEW,0.00,229.00,VWS V14.01,2013-03-13 13:13:00,
2013-03-13 09:14:00,63.4,58.2,30.07,North,10,5.0,14.0,83,0.00,,FEW,0.00,229.00,VWS V14.01,2013-03-13 13:14:00,
2013-03-13 09:15:00,63.4,58.2,30.07,NE,34,6.0,14.0,83,0.00,,FEW,0.00,227.00,VWS V14.01,2013-03-13 13:15:00,
2013-03-13 09:18:00,63.5,58.2,30.08,NNE,17,11.0,14.0,83,0.00,,FEW,0.00,239.00,VWS V14.01,2013-03-13 13:18:00,
2013-03-13 09:19:00,63.5,58.2,30.08,NE,41,8.0,14.0,83,0.00,,FEW,0.00,274.00,VWS V14.01,2013-03-13 13:19:00,
2013-03-13 09:20:00,63.6,58.3,30.08,NNE,31,7.0,14.0,83,0.00,,FEW,0.00,274.00,VWS V14.01,2013-03-13 13:20:00,
2013-03-13 09:23:00,63.8,58.2,30.08,North,355,10.0,13.0,82,0.00,,FEW,0.00,297.00,VWS V14.01,2013-03-13 13:23:00,
2013-03-13 09:24:00,63.8,58.2,30.08,North,11,6.0,13.0,82,0.00,,FEW,0.00,306.00,VWS V14.01,2013-03-13 13:24:00,
2013-03-13 09:25:00,63.8,58.2,30.08,NE,48,5.0,13.0,82,0.00,,FEW,0.00,255.00,VWS V14.01,2013-03-13 13:25:00,
2013-03-13 09:29:00,64.1,58.5,30.08,NNE,17,10.0,15.0,82,0.00,,FEW,0.00,336.00,VWS V14.01,2013-03-13 13:29:00,
2013-03-13 09:30:00,64.2,58.3,30.08,North,5,14.0,17.0,81,0.00,,FEW,0.00,323.00,VWS V14.01,2013-03-13 13:30:00,
2013-03-13 09:34:00,64.4,58.1,30.08,NNE,31,13.0,13.0,80,0.00,,FEW,0.00,320.00,VWS V14.01,2013-03-13 13:34:00,
2013-03-13 09:35:00,64.5,58.2,30.08,NNE,14,8.0,13.0,80,0.00,,FEW,0.00,338.00,VWS V14.01,2013-03-13 13:35:00,
2013-03-13 09:39:00,64.7,58.0,30.08,NNE,28,6.0,16.0,79,0.00,,FEW,0.00,341.00,VWS V14.01,2013-03-13 13:39:00,
2013-03-13 09:40:00,64.8,58.1,30.08,NNW,337,8.0,16.0,79,0.00,,FEW,0.00,357.00,VWS V14.01,2013-03-13 13:40:00,
2013-03-13 09:44:00,64.9,57.9,30.08,North,355,13.0,15.0,78,0.00,,FEW,0.00,369.00,VWS V14.01,2013-03-13 13:44:00,
2013-03-13 09:45:00,64.9,57.9,30.08,NNE,32,6.0,15.0,78,0.00,,FEW,0.00,367.00,VWS V14.01,2013-03-13 13:45:00,
2013-03-13 09:46:00,65.0,58.0,30.08,NNE,17,9.0,15.0,78,0.00,,FEW,0.00,378.00,VWS V14.01,2013-03-13 13:46:00,
2013-03-13 09:47:00,65.1,58.1,30.08,NNE,24,5.0,15.0,78,0.00,,FEW,0.00,367.00,VWS V14.01,2013-03-13 13:47:00,
2013-03-13 09:49:00,65.2,58.2,30.08,North,355,9.0,15.0,78,0.00,,FEW,0.00,388.00,VWS V14.01,2013-03-13 13:49:00,
2013-03-13 09:50:00,65.4,58.4,30.08,NNW,327,7.0,15.0,78,0.00,,FEW,0.00,381.00,VWS V14.01,2013-03-13 13:50:00,
2013-03-13 09:51:00,65.6,58.6,30.08,NNW,333,9.0,15.0,78,0.00,,FEW,0.00,385.00,VWS V14.01,2013-03-13 13:51:00,
2013-03-13 09:52:00,65.6,58.6,30.08,NNW,332,12.0,15.0,78,0.00,,FEW,0.00,401.00,VWS V14.01,2013-03-13 13:52:00,
2013-03-13 09:54:00,65.6,58.2,30.08,North,9,6.0,15.0,77,0.00,,FEW,0.00,441.00,VWS V14.01,2013-03-13 13:54:00,
2013-03-13 09:56:00,65.7,58.3,30.08,North,5,13.0,15.0,77,0.00,,FEW,0.00,457.00,VWS V14.01,2013-03-13 13:56:00,
2013-03-13 09:57:00,65.8,58.0,30.08,NE,38,7.0,15.0,76,0.00,,FEW,0.00,364.00,VWS V14.01,2013-03-13 13:57:00,
2013-03-13 09:59:00,65.8,57.7,30.08,NNE,28,8.0,15.0,75,0.00,,FEW,0.00,341.00,VWS V14.01,2013-03-13 13:59:00,
2013-03-13 10:02:00,65.9,57.8,30.09,North,355,9.0,15.0,75,0.00,,FEW,0.00,436.00,VWS V14.01,2013-03-13 14:02:00,
2013-03-13 10:04:00,66.1,58.0,30.09,NNW,347,8.0,13.0,75,0.00,,FEW,0.00,383.00,VWS V14.01,2013-03-13 14:04:00,
2013-03-13 10:07:00,66.3,58.2,30.09,North,355,12.0,15.0,75,0.00,,FEW,0.00,429.00,VWS V14.01,2013-03-13 14:07:00,
2013-03-13 10:09:00,66.2,57.7,30.09,NNE,30,5.0,15.0,74,0.00,,FEW,0.00,469.00,VWS V14.01,2013-03-13 14:09:00,
2013-03-13 10:12:00,66.1,57.2,30.09,NNW,342,6.0,13.0,73,0.00,,FEW,0.00,258.00,VWS V14.01,2013-03-13 14:12:00,
2013-03-13 10:14:00,66.0,57.5,30.09,North,360,8.0,13.0,74,0.00,,FEW,0.00,450.00,VWS V14.01,2013-03-13 14:14:00,
2013-03-13 10:17:00,66.2,57.3,30.09,North,355,12.0,14.0,73,0.00,,FEW,0.00,550.00,VWS V14.01,2013-03-13 14:17:00,
2013-03-13 10:18:00,66.3,57.4,30.09,NNE,15,14.0,14.0,73,0.00,,FEW,0.00,548.00,VWS V14.01,2013-03-13 14:18:00,
2013-03-13 10:19:00,66.4,57.1,30.09,NNE,19,12.0,14.0,72,0.00,,FEW,0.00,631.00,VWS V14.01,2013-03-13 14:19:00,
2013-03-13 10:22:00,66.7,57.4,30.09,North,355,6.0,16.0,72,0.00,,FEW,0.00,563.00,VWS V14.01,2013-03-13 14:22:00,
2013-03-13 10:23:00,66.8,57.5,30.09,NNW,340,9.0,16.0,72,0.00,,FEW,0.00,497.00,VWS V14.01,2013-03-13 14:23:00,
2013-03-13 10:24:00,66.9,57.6,30.09,NE,36,10.0,17.0,72,0.00,,FEW,0.00,461.00,VWS V14.01,2013-03-13 14:24:00,
2013-03-13 10:27:00,66.8,57.1,30.09,NNE,23,7.0,17.0,71,0.00,,FEW,0.00,327.00,VWS V14.01,2013-03-13 14:27:00,
2013-03-13 10:28:00,66.8,57.1,30.09,NNE,22,11.0,17.0,71,0.00,,FEW,0.00,327.00,VWS V14.01,2013-03-13 14:28:00,
2013-03-13 10:29:00,66.8,57.1,30.09,North,360,6.0,17.0,71,0.00,,FEW,0.00,297.00,VWS V14.01,2013-03-13 14:29:00,
2013-03-13 10:33:00,66.8,56.7,30.10,NNE,30,10.0,12.0,70,0.00,,FEW,0.00,487.00,VWS V14.01,2013-03-13 14:33:00,
2013-03-13 10:34:00,66.8,57.1,30.10,NNE,23,6.0,12.0,71,0.00,,FEW,0.00,587.00,VWS V14.01,2013-03-13 14:34:00,
2013-03-13 10:38:00,67.3,56.8,30.10,North,360,10.0,12.0,69,0.00,,FEW,0.00,450.00,VWS V14.01,2013-03-13 14:38:00,
2013-03-13 10:39:00,67.3,56.8,30.10,NE,36,4.0,14.0,69,0.00,,FEW,0.00,345.00,VWS V14.01,2013-03-13 14:39:00,
2013-03-13 10:43:00,67.2,56.7,30.10,NE,38,10.0,15.0,69,0.00,,FEW,0.00,512.00,VWS V14.01,2013-03-13 14:43:00,
2013-03-13 10:44:00,67.3,56.8,30.10,NNE,25,10.0,15.0,69,0.00,,FEW,0.00,643.00,VWS V14.01,2013-03-13 14:44:00,
2013-03-13 10:48:00,68.0,57.9,30.10,North,9,9.0,15.0,70,0.00,,FEW,0.00,638.00,VWS V14.01,2013-03-13 14:48:00,
2013-03-13 10:49:00,68.2,57.7,30.10,NNW,340,7.0,15.0,69,0.00,,FEW,0.00,666.00,VWS V14.01,2013-03-13 14:49:00,
2013-03-13 10:53:00,68.4,57.0,30.10,NNE,24,12.0,16.0,67,0.00,,FEW,0.00,705.00,VWS V14.01,2013-03-13 14:53:00,
2013-03-13 10:54:00,68.4,56.6,30.10,North,9,4.0,16.0,66,0.00,,FEW,0.00,705.00,VWS V14.01,2013-03-13 14:54:00,
2013-03-13 10:58:00,68.6,56.8,30.10,North,355,7.0,16.0,66,0.00,,FEW,0.00,628.00,VWS V14.01,2013-03-13 14:58:00,
2013-03-13 10:59:00,68.6,56.8,30.10,North,5,13.0,16.0,66,0.00,,FEW,0.00,464.00,VWS V14.01,2013-03-13 14:59:00,
2013-03-13 11:03:00,68.3,55.7,30.09,NNW,344,8.0,14.0,64,0.00,,FEW,0.00,752.00,VWS V14.01,2013-03-13 15:03:00,
2013-03-13 11:04:00,68.3,55.7,30.09,NNE,19,5.0,14.0,64,0.00,,FEW,0.00,752.00,VWS V14.01,2013-03-13 15:04:00,
2013-03-13 11:05:00,68.4,56.2,30.09,NW,325,9.0,14.0,65,0.00,,FEW,0.00,752.00,VWS V14.01,2013-03-13 15:05:00,
2013-03-13 11:08:00,68.7,56.5,30.09,NNE,13,7.0,19.0,65,0.00,,FEW,0.00,619.00,VWS V14.01,2013-03-13 15:08:00,
2013-03-13 11:09:00,68.7,56.5,30.09,North,5,10.0,19.0,65,0.00,,FEW,0.00,619.00,VWS V14.01,2013-03-13 15:09:00,
2013-03-13 11:10:00,68.8,56.6,30.09,NW,323,8.0,19.0,65,0.00,,FEW,0.00,670.00,VWS V14.01,2013-03-13 15:10:00,
2013-03-13 11:13:00,69.2,56.5,30.09,North,360,6.0,12.0,64,0.00,,FEW,0.00,742.00,VWS V14.01,2013-03-13 15:13:00,
2013-03-13 11:14:00,69.2,56.5,30.09,NNE,33,6.0,12.0,64,0.00,,FEW,0.00,756.00,VWS V14.01,2013-03-13 15:14:00,
2013-03-13 11:15:00,69.3,57.0,30.09,NW,325,8.0,12.0,65,0.00,,FEW,0.00,756.00,VWS V14.01,2013-03-13 15:15:00,
2013-03-13 11:19:00,69.5,56.4,30.10,North,5,11.0,17.0,63,0.00,,FEW,0.00,786.00,VWS V14.01,2013-03-13 15:19:00,
2013-03-13 11:20:00,69.5,56.4,30.10,North,355,12.0,17.0,63,0.00,,FEW,0.00,749.00,VWS V14.01,2013-03-13 15:20:00,
2013-03-13 11:24:00,69.5,55.9,30.10,NNE,14,9.0,14.0,62,0.00,,FEW,0.00,612.00,VWS V14.01,2013-03-13 15:24:00,
2013-03-13 11:25:00,69.4,55.4,30.10,NNE,16,9.0,14.0,61,0.00,,FEW,0.00,534.00,VWS V14.01,2013-03-13 15:25:00,
2013-03-13 11:29:00,69.4,55.4,30.10,NNE,16,6.0,14.0,61,0.00,,FEW,0.00,793.00,VWS V14.01,2013-03-13 15:29:00,
2013-03-13 11:30:00,69.5,55.9,30.10,North,355,13.0,14.0,62,0.00,,FEW,0.00,796.00,VWS V14.01,2013-03-13 15:30:00,
2013-03-13 11:34:00,69.8,56.7,30.11,North,355,8.0,12.0,63,0.00,,FEW,0.00,784.00,VWS V14.01,2013-03-13 15:34:00,
2013-03-13 11:35:00,69.9,56.8,30.11,NNW,331,11.0,12.0,63,0.00,,FEW,0.00,788.00,VWS V14.01,2013-03-13 15:35:00,
2013-03-13 11:39:00,70.2,57.0,30.11,NNW,338,11.0,14.0,63,0.00,,FEW,0.00,805.00,VWS V14.01,2013-03-13 15:39:00,
2013-03-13 11:40:00,70.4,56.8,30.11,North,350,8.0,14.0,62,0.00,,FEW,0.00,766.00,VWS V14.01,2013-03-13 15:40:00,
2013-03-13 11:44:00,70.4,55.9,30.11,North,350,13.0,15.0,60,0.00,,FEW,0.00,677.00,VWS V14.01,2013-03-13 15:44:00,
2013-03-13 11:45:00,70.3,55.8,30.11,NNE,30,8.0,15.0,60,0.00,,FEW,0.00,759.00,VWS V14.01,2013-03-13 15:45:00,
2013-03-13 11:49:00,70.1,55.1,30.11,North,355,13.0,15.0,59,0.00,,FEW,0.00,835.00,VWS V14.01,2013-03-13 15:49:00,
2013-03-13 11:50:00,70.1,55.6,30.11,NNW,345,13.0,15.0,60,0.00,,FEW,0.00,846.00,VWS V14.01,2013-03-13 15:50:00,
2013-03-13 11:54:00,70.4,56.3,30.11,North,10,9.0,13.0,61,0.00,,FEW,0.00,868.00,VWS V14.01,2013-03-13 15:54:00,
2013-03-13 11:55:00,70.5,56.4,30.11,NNE,21,11.0,13.0,61,0.00,,FEW,0.00,881.00,VWS V14.01,2013-03-13 15:55:00,
2013-03-13 11:59:00,70.5,56.0,30.11,NNE,27,8.0,16.0,60,0.00,,FEW,0.00,831.00,VWS V14.01,2013-03-13 15:59:00,
2013-03-13 12:00:00,70.5,56.0,30.11,North,355,6.0,16.0,60,0.00,,FEW,0.00,831.00,VWS V14.01,2013-03-13 16:00:00,
2013-03-13 12:04:00,70.7,55.7,30.11,North,11,11.0,15.0,59,0.00,,FEW,0.00,900.00,VWS V14.01,2013-03-13 16:04:00,
2013-03-13 12:05:00,70.6,55.6,30.11,NNW,342,11.0,15.0,59,0.00,,FEW,0.00,895.00,VWS V14.01,2013-03-13 16:05:00,
2013-03-13 12:09:00,70.7,55.7,30.11,NNW,331,12.0,15.0,59,0.00,,FEW,0.00,758.00,VWS V14.01,2013-03-13 16:09:00,
2013-03-13 12:10:00,70.7,55.7,30.11,North,11,6.0,15.0,59,0.00,,FEW,0.00,758.00,VWS V14.01,2013-03-13 16:10:00,
2013-03-13 12:14:00,70.3,55.3,30.11,North,355,13.0,15.0,59,0.00,,FEW,0.00,749.00,VWS V14.01,2013-03-13 16:14:00,
2013-03-13 12:15:00,70.2,55.2,30.11,NNW,334,11.0,15.0,59,0.00,,FEW,0.00,749.00,VWS V14.01,2013-03-13 16:15:00,
2013-03-13 12:19:00,70.0,56.0,30.10,NNE,16,10.0,15.0,61,0.00,,FEW,0.00,782.00,VWS V14.01,2013-03-13 16:19:00,
2013-03-13 12:20:00,70.0,56.0,30.10,ENE,61,10.0,15.0,61,0.00,,FEW,0.00,770.00,VWS V14.01,2013-03-13 16:20:00,
2013-03-13 12:25:00,70.3,55.8,30.10,North,5,12.0,15.0,60,0.00,,FEW,0.00,935.00,VWS V14.01,2013-03-13 16:25:00,
2013-03-13 12:26:00,70.3,55.3,30.10,NNW,341,13.0,16.0,59,0.00,,FEW,0.00,891.00,VWS V14.01,2013-03-13 16:26:00,
2013-03-13 12:30:00,70.6,55.6,30.10,NNE,29,7.0,16.0,59,0.00,,FEW,0.00,905.00,VWS V14.01,2013-03-13 16:30:00,
2013-03-13 12:31:00,70.6,55.6,30.10,NNE,19,9.0,16.0,59,0.00,,FEW,0.00,858.00,VWS V14.01,2013-03-13 16:31:00,
2013-03-13 12:35:00,71.1,56.1,30.10,North,5,6.0,13.0,59,0.00,,FEW,0.00,956.00,VWS V14.01,2013-03-13 16:35:00,
2013-03-13 12:36:00,71.3,56.2,30.10,North,349,9.0,13.0,59,0.00,,FEW,0.00,956.00,VWS V14.01,2013-03-13 16:36:00,
2013-03-13 12:40:00,71.5,55.5,30.10,ENE,59,11.0,14.0,57,0.00,,FEW,0.00,740.00,VWS V14.01,2013-03-13 16:40:00,
2013-03-13 12:41:00,71.5,55.5,30.10,NNW,338,8.0,14.0,57,0.00,,FEW,0.00,740.00,VWS V14.01,2013-03-13 16:41:00,
2013-03-13 12:45:00,71.2,55.7,30.10,NNW,341,8.0,13.0,58,0.00,,FEW,0.00,499.00,VWS V14.01,2013-03-13 16:45:00,
2013-03-13 12:46:00,71.1,55.6,30.10,NW,322,6.0,13.0,58,0.00,,FEW,0.00,499.00,VWS V14.01,2013-03-13 16:46:00,
2013-03-13 12:50:00,70.9,54.9,30.10,NNE,25,9.0,13.0,57,0.00,,FEW,0.00,842.00,VWS V14.01,2013-03-13 16:50:00,
2013-03-13 12:52:00,70.9,54.9,30.10,North,5,6.0,13.0,57,0.00,,FEW,0.00,898.00,VWS V14.01,2013-03-13 16:52:00,
2013-03-13 12:55:00,71.0,55.0,30.10,NNW,340,10.0,12.0,57,0.00,,FEW,0.00,963.00,VWS V14.01,2013-03-13 16:55:00,
2013-03-13 12:57:00,71.1,55.1,30.10,NW,325,8.0,12.0,57,0.00,,FEW,0.00,856.00,VWS V14.01,2013-03-13 16:57:00,
2013-03-13 13:00:00,71.5,54.5,30.10,NNE,23,9.0,13.0,55,0.00,,FEW,0.00,853.00,VWS V14.01,2013-03-13 17:00:00,
2013-03-13 13:01:00,71.5,54.5,30.10,NNE,32,6.0,13.0,55,0.00,,FEW,0.00,853.00,VWS V14.01,2013-03-13 17:01:00,
2013-03-13 13:02:00,71.7,55.2,30.09,NW,323,13.0,13.0,56,0.00,,FEW,0.00,796.00,VWS V14.01,2013-03-13 17:02:00,
2013-03-13 13:05:00,71.8,55.3,30.09,North,355,11.0,13.0,56,0.00,,FEW,0.00,663.00,VWS V14.01,2013-03-13 17:05:00,
2013-03-13 13:06:00,71.8,54.8,30.09,NNW,337,7.0,13.0,55,0.00,,FEW,0.00,663.00,VWS V14.01,2013-03-13 17:06:00,
2013-03-13 13:07:00,71.7,55.2,30.09,NE,40,7.0,13.0,56,0.00,,FEW,0.00,940.00,VWS V14.01,2013-03-13 17:07:00,
2013-03-13 13:10:00,71.8,54.3,30.09,North,5,10.0,14.0,54,0.00,,FEW,0.00,947.00,VWS V14.01,2013-03-13 17:10:00,
2013-03-13 13:11:00,71.8,54.3,30.09,North,355,7.0,14.0,54,0.00,,FEW,0.00,947.00,VWS V14.01,2013-03-13 17:11:00,
2013-03-13 13:12:00,71.9,54.4,30.09,NW,323,7.0,8.0,54,0.00,,FEW,0.00,947.00,VWS V14.01,2013-03-13 17:12:00,
2013-03-13 13:16:00,72.0,54.5,30.09,North,5,10.0,10.0,54,0.00,,FEW,0.00,635.00,VWS V14.01,2013-03-13 17:16:00,
2013-03-13 13:17:00,72.0,55.0,30.08,NNE,29,6.0,11.0,55,0.00,,FEW,0.00,547.00,VWS V14.01,2013-03-13 17:17:00,
2013-03-13 13:21:00,71.7,54.2,30.08,NNW,342,6.0,12.0,54,0.00,,FEW,0.00,661.00,VWS V14.01,2013-03-13 17:21:00,
2013-03-13 13:22:00,71.6,54.6,30.08,North,355,8.0,12.0,55,0.00,,FEW,0.00,661.00,VWS V14.01,2013-03-13 17:22:00,
2013-03-13 13:26:00,71.8,54.3,30.08,NNW,343,8.0,13.0,54,0.00,,FEW,0.00,788.00,VWS V14.01,2013-03-13 17:26:00,
2013-03-13 13:27:00,72.0,54.5,30.08,North,355,8.0,13.0,54,0.00,,FEW,0.00,867.00,VWS V14.01,2013-03-13 17:27:00,
2013-03-13 13:31:00,72.2,53.6,30.08,NNE,20,8.0,13.0,52,0.00,,FEW,0.00,1021.00,VWS V14.01,2013-03-13 17:31:00,
2013-03-13 13:32:00,72.4,53.8,30.08,North,5,11.0,12.0,52,0.00,,FEW,0.00,1007.00,VWS V14.01,2013-03-13 17:32:00,
2013-03-13 13:33:00,72.4,53.8,30.08,North,355,13.0,13.0,52,0.00,,FEW,0.00,953.00,VWS V14.01,2013-03-13 17:33:00,
2013-03-13 13:36:00,72.4,53.8,30.08,North,5,6.0,13.0,52,0.00,,FEW,0.00,1027.00,VWS V14.01,2013-03-13 17:36:00,
2013-03-13 13:37:00,72.6,54.0,30.08,NNW,348,10.0,13.0,52,0.00,,FEW,0.00,1023.00,VWS V14.01,2013-03-13 17:37:00,
2013-03-13 13:38:00,72.7,54.1,30.08,NNW,344,8.0,13.0,52,0.00,,FEW,0.00,984.00,VWS V14.01,2013-03-13 17:38:00,
2013-03-13 13:42:00,72.8,54.2,30.08,NNW,344,7.0,7.0,52,0.00,,FEW,0.00,870.00,VWS V14.01,2013-03-13 17:42:00,
2013-03-13 13:43:00,72.8,54.2,30.08,WNW,287,7.0,14.0,52,0.00,,FEW,0.00,870.00,VWS V14.01,2013-03-13 17:43:00,
2013-03-13 13:47:00,72.9,55.8,30.08,NW,309,7.0,14.0,55,0.00,,FEW,0.00,868.00,VWS V14.01,2013-03-13 17:47:00,
2013-03-13 13:48:00,72.7,55.6,30.08,NW,306,11.0,14.0,55,0.00,,FEW,0.00,870.00,VWS V14.01,2013-03-13 17:48:00,
2013-03-13 13:52:00,71.7,55.7,30.08,NNE,15,7.0,8.0,57,0.00,,FEW,0.00,601.00,VWS V14.01,2013-03-13 17:52:00,
2013-03-13 13:53:00,71.6,56.1,30.08,NW,321,8.0,12.0,58,0.00,,FEW,0.00,636.00,VWS V14.01,2013-03-13 17:53:00,
2013-03-13 13:57:00,71.2,55.2,30.08,North,351,12.0,13.0,57,0.00,,FEW,0.00,555.00,VWS V14.01,2013-03-13 17:57:00,
2013-03-13 13:58:00,71.1,55.1,30.08,NNW,344,12.0,13.0,57,0.00,,FEW,0.00,555.00,VWS V14.01,2013-03-13 17:58:00,
2013-03-13 14:02:00,70.9,55.4,30.07,NW,314,9.0,9.0,58,0.00,,FEW,0.00,526.00,VWS V14.01,2013-03-13 18:02:00,
2013-03-13 14:03:00,70.9,55.4,30.07,NNW,329,8.0,9.0,58,0.00,,FEW,0.00,494.00,VWS V14.01,2013-03-13 18:03:00,
2013-03-13 14:07:00,70.8,55.3,30.07,North,11,11.0,11.0,58,0.00,,FEW,0.00,559.00,VWS V14.01,2013-03-13 18:07:00,
2013-03-13 14:08:00,70.8,55.3,30.07,NW,317,8.0,12.0,58,0.00,,FEW,0.00,559.00,VWS V14.01,2013-03-13 18:08:00,
2013-03-13 14:09:00,70.7,55.7,30.07,NNW,336,12.0,12.0,59,0.00,,FEW,0.00,643.00,VWS V14.01,2013-03-13 18:09:00,
2013-03-13 14:13:00,70.8,55.8,30.07,North,355,7.0,10.0,59,0.00,,FEW,0.00,867.00,VWS V14.01,2013-03-13 18:13:00,
2013-03-13 14:14:00,70.8,56.2,30.07,NNW,336,4.0,10.0,60,0.00,,FEW,0.00,867.00,VWS V14.01,2013-03-13 18:14:00,
2013-03-13 14:18:00,71.3,55.8,30.06,NNW,332,9.0,13.0,58,0.00,,FEW,0.00,933.00,VWS V14.01,2013-03-13 18:18:00,
2013-03-13 14:19:00,71.3,55.8,30.06,NW,311,6.0,13.0,58,0.00,,FEW,0.00,946.00,VWS V14.01,2013-03-13 18:19:00,
2013-03-13 14:23:00,72.2,56.6,30.06,NNW,327,8.0,8.0,58,0.00,,FEW,0.00,986.00,VWS V14.01,2013-03-13 18:23:00,
2013-03-13 14:24:00,72.3,56.2,30.06,North,11,5.0,11.0,57,0.00,,FEW,0.00,740.00,VWS V14.01,2013-03-13 18:24:00,
2013-03-13 14:28:00,72.1,55.6,30.06,NNW,336,9.0,13.0,56,0.00,,FEW,0.00,782.00,VWS V14.01,2013-03-13 18:28:00,
2013-03-13 14:29:00,71.9,54.9,30.06,North,355,3.0,13.0,55,0.00,,FEW,0.00,782.00,VWS V14.01,2013-03-13 18:29:00,
2013-03-13 14:33:00,71.8,56.2,30.06,North,349,8.0,8.0,58,0.00,,FEW,0.00,817.00,VWS V14.01,2013-03-13 18:33:00,
2013-03-13 14:34:00,72.0,55.5,30.06,NW,323,14.0,14.0,56,0.00,,FEW,0.00,854.00,VWS V14.01,2013-03-13 18:34:00,
2013-03-13 14:38:00,72.0,55.5,30.06,NNE,24,4.0,14.0,56,0.00,,FEW,0.00,684.00,VWS V14.01,2013-03-13 18:38:00,
2013-03-13 14:39:00,72.0,55.5,30.06,North,355,6.0,14.0,56,0.00,,FEW,0.00,795.00,VWS V14.01,2013-03-13 18:39:00,
2013-03-13 14:40:00,72.0,55.5,30.06,NNW,331,11.0,14.0,56,0.00,,FEW,0.00,795.00,VWS V14.01,2013-03-13 18:40:00,
2013-03-13 14:43:00,72.1,55.6,30.06,North,5,9.0,12.0,56,0.00,,FEW,0.00,847.00,VWS V14.01,2013-03-13 18:43:00,
2013-03-13 14:44:00,72.2,56.1,30.06,NNW,328,7.0,12.0,57,0.00,,FEW,0.00,759.00,VWS V14.01,2013-03-13 18:44:00,
2013-03-13 14:45:00,72.5,56.4,30.06,North,5,9.0,12.0,57,0.00,,FEW,0.00,759.00,VWS V14.01,2013-03-13 18:45:00,
2013-03-13 14:48:00,72.9,56.3,30.05,NNW,330,9.0,12.0,56,0.00,,FEW,0.00,759.00,VWS V14.01,2013-03-13 18:48:00,
2013-03-13 14:49:00,72.8,56.7,30.05,NNW,335,7.0,12.0,57,0.00,,FEW,0.00,893.00,VWS V14.01,2013-03-13 18:49:00,
2013-03-13 14:50:00,72.8,56.7,30.05,NNW,327,13.0,13.0,57,0.00,,FEW,0.00,893.00,VWS V14.01,2013-03-13 18:50:00,
2013-03-13 14:53:00,73.0,56.9,30.05,NNW,331,7.0,7.0,57,0.00,,FEW,0.00,909.00,VWS V14.01,2013-03-13 18:53:00,
2013-03-13 14:54:00,73.2,57.1,30.05,NNW,333,7.0,10.0,57,0.00,,FEW,0.00,831.00,VWS V14.01,2013-03-13 18:54:00,
2013-03-13 14:56:00,73.2,56.6,30.05,NNE,26,8.0,11.0,56,0.00,,FEW,0.00,909.00,VWS V14.01,2013-03-13 18:56:00,
2013-03-13 14:58:00,73.0,55.9,30.05,NW,320,5.0,12.0,55,0.00,,FEW,0.00,793.00,VWS V14.01,2013-03-13 18:58:00,
2013-03-13 14:59:00,73.0,55.9,30.05,NW,308,7.0,12.0,55,0.00,,FEW,0.00,884.00,VWS V14.01,2013-03-13 18:59:00,
2013-03-13 15:01:00,73.0,56.9,30.05,NW,318,5.0,12.0,57,0.00,,FEW,0.00,884.00,VWS V14.01,2013-03-13 19:01:00,
2013-03-13 15:04:00,73.1,56.5,30.05,NW,306,11.0,12.0,56,0.00,,FEW,0.00,833.00,VWS V14.01,2013-03-13 19:04:00,
2013-03-13 15:06:00,73.0,57.4,30.05,NW,323,8.0,13.0,58,0.00,,FEW,0.00,763.00,VWS V14.01,2013-03-13 19:06:00,
2013-03-13 15:09:00,72.7,56.6,30.05,NNW,333,3.0,13.0,57,0.00,,FEW,0.00,884.00,VWS V14.01,2013-03-13 19:09:00,
2013-03-13 15:11:00,72.8,56.7,30.05,NNW,346,5.0,13.0,57,0.00,,FEW,0.00,826.00,VWS V14.01,2013-03-13 19:11:00,
2013-03-13 15:14:00,72.6,57.0,30.05,NNW,335,9.0,13.0,58,0.00,,FEW,0.00,635.00,VWS V14.01,2013-03-13 19:14:00,
2013-03-13 15:16:00,72.4,56.3,30.05,North,355,11.0,13.0,57,0.00,,FEW,0.00,635.00,VWS V14.01,2013-03-13 19:16:00,
2013-03-13 15:19:00,72.4,56.8,30.05,NNW,334,11.0,13.0,58,0.00,,FEW,0.00,605.00,VWS V14.01,2013-03-13 19:19:00,
2013-03-13 15:22:00,72.3,56.7,30.05,North,360,9.0,13.0,58,0.00,,FEW,0.00,758.00,VWS V14.01,2013-03-13 19:22:00,
2013-03-13 15:24:00,72.2,56.6,30.05,North,349,6.0,11.0,58,0.00,,FEW,0.00,758.00,VWS V14.01,2013-03-13 19:24:00,
2013-03-13 15:25:00,72.3,56.7,30.05,NNW,339,9.0,13.0,58,0.00,,FEW,0.00,735.00,VWS V14.01,2013-03-13 19:25:00,
2013-03-13 15:27:00,72.3,57.2,30.05,NW,309,4.0,13.0,59,0.00,,FEW,0.00,691.00,VWS V14.01,2013-03-13 19:27:00,
2013-03-13 15:29:00,72.4,56.8,30.05,NW,325,6.0,13.0,58,0.00,,FEW,0.00,789.00,VWS V14.01,2013-03-13 19:29:00,
2013-03-13 15:30:00,72.6,57.5,30.05,North,360,11.0,13.0,59,0.00,,FEW,0.00,740.00,VWS V14.01,2013-03-13 19:30:00,
2013-03-13 15:32:00,72.7,57.1,30.04,NNW,331,6.0,13.0,58,0.00,,FEW,0.00,617.00,VWS V14.01,2013-03-13 19:32:00,
2013-03-13 15:34:00,72.8,57.7,30.04,NNW,348,12.0,12.0,59,0.00,,FEW,0.00,617.00,VWS V14.01,2013-03-13 19:34:00,
2013-03-13 15:35:00,72.8,56.7,30.04,NNW,331,8.0,12.0,57,0.00,,FEW,0.00,844.00,VWS V14.01,2013-03-13 19:35:00,
2013-03-13 15:37:00,72.8,56.7,30.04,NNW,344,5.0,12.0,57,0.00,,FEW,0.00,751.00,VWS V14.01,2013-03-13 19:37:00,
2013-03-13 15:39:00,73.0,56.9,30.04,NNW,344,7.0,14.0,57,0.00,,FEW,0.00,867.00,VWS V14.01,2013-03-13 19:39:00,
2013-03-13 15:40:00,73.1,57.0,30.04,NW,309,11.0,14.0,57,0.00,,FEW,0.00,867.00,VWS V14.01,2013-03-13 19:40:00,
2013-03-13 15:43:00,73.3,57.2,30.04,NW,320,7.0,9.0,57,0.00,,FEW,0.00,798.00,VWS V14.01,2013-03-13 19:43:00,
2013-03-13 15:44:00,73.5,57.3,30.04,NW,326,5.0,12.0,57,0.00,,FEW,0.00,675.00,VWS V14.01,2013-03-13 19:44:00,
2013-03-13 15:45:00,73.6,57.4,30.04,NW,309,7.0,12.0,57,0.00,,FEW,0.00,675.00,VWS V14.01,2013-03-13 19:45:00,
2013-03-13 15:48:00,73.5,58.3,30.03,WNW,303,9.0,13.0,59,0.00,,FEW,0.00,675.00,VWS V14.01,2013-03-13 19:48:00,
2013-03-13 15:49:00,73.3,58.1,30.03,NNW,331,14.0,15.0,59,0.00,,FEW,0.00,366.00,VWS V14.01,2013-03-13 19:49:00,
2013-03-13 15:50:00,73.1,57.9,30.03,NW,310,9.0,15.0,59,0.00,,FEW,0.00,392.00,VWS V14.01,2013-03-13 19:50:00,
2013-03-13 15:53:00,72.7,58.5,30.03,NW,322,10.0,11.0,61,0.00,,FEW,0.00,471.00,VWS V14.01,2013-03-13 19:53:00,
2013-03-13 15:54:00,72.6,58.4,30.03,NNW,338,6.0,12.0,61,0.00,,FEW,0.00,735.00,VWS V14.01,2013-03-13 19:54:00,
2013-03-13 15:56:00,72.5,58.8,30.03,NNW,340,9.0,13.0,62,0.00,,FEW,0.00,640.00,VWS V14.01,2013-03-13 19:56:00,
2013-03-13 15:58:00,72.5,58.3,30.03,North,5,6.0,13.0,61,0.00,,FEW,0.00,671.00,VWS V14.01,2013-03-13 19:58:00,
2013-03-13 15:59:00,72.7,58.5,30.03,NNW,341,7.0,13.0,61,0.00,,FEW,0.00,671.00,VWS V14.01,2013-03-13 19:59:00,
2013-03-13 16:01:00,72.9,58.7,30.03,NNW,342,8.0,13.0,61,0.00,,FEW,0.00,823.00,VWS V14.01,2013-03-13 20:01:00,
2013-03-13 16:03:00,73.3,59.0,30.03,NNW,345,7.0,9.0,61,0.00,,FEW,0.00,726.00,VWS V14.01,2013-03-13 20:03:00,
2013-03-13 16:04:00,73.6,58.9,30.03,North,360,6.0,10.0,60,0.00,,FEW,0.00,608.00,VWS V14.01,2013-03-13 20:04:00,
2013-03-13 16:06:00,73.7,59.0,30.03,NW,318,6.0,10.0,60,0.00,,FEW,0.00,563.00,VWS V14.01,2013-03-13 20:06:00,
2013-03-13 16:08:00,73.6,58.9,30.03,North,5,7.0,15.0,60,0.00,,FEW,0.00,527.00,VWS V14.01,2013-03-13 20:08:00,
2013-03-13 16:10:00,73.5,59.2,30.03,North,355,7.0,15.0,61,0.00,,FEW,0.00,466.00,VWS V14.01,2013-03-13 20:10:00,
2013-03-13 16:11:00,73.4,59.2,30.03,North,355,12.0,15.0,61,0.00,,FEW,0.00,466.00,VWS V14.01,2013-03-13 20:11:00,
2013-03-13 16:14:00,73.1,58.9,30.03,North,355,6.0,12.0,61,0.00,,FEW,0.00,643.00,VWS V14.01,2013-03-13 20:14:00,
2013-03-13 16:15:00,73.0,58.8,30.03,NW,326,6.0,14.0,61,0.00,,FEW,0.00,436.00,VWS V14.01,2013-03-13 20:15:00,
2013-03-13 16:16:00,72.9,58.7,30.03,NW,318,7.0,14.0,61,0.00,,FEW,0.00,513.00,VWS V14.01,2013-03-13 20:16:00,
2013-03-13 16:19:00,72.7,58.9,30.03,North,350,9.0,14.0,62,0.00,,FEW,0.00,817.00,VWS V14.01,2013-03-13 20:19:00,
2013-03-13 16:20:00,72.8,59.0,30.03,North,355,10.0,15.0,62,0.00,,FEW,0.00,744.00,VWS V14.01,2013-03-13 20:20:00,
2013-03-13 16:21:00,72.9,59.6,30.03,North,355,4.0,15.0,63,0.00,,FEW,0.00,700.00,VWS V14.01,2013-03-13 20:21:00,
2013-03-13 16:22:00,72.9,59.6,30.03,NNE,13,9.0,15.0,63,0.00,,FEW,0.00,700.00,VWS V14.01,2013-03-13 20:22:00,
2013-03-13 16:24:00,73.1,58.9,30.03,NNW,331,12.0,15.0,61,0.00,,FEW,0.00,700.00,VWS V14.01,2013-03-13 20:24:00,
2013-03-13 16:25:00,73.0,58.8,30.03,North,350,11.0,15.0,61,0.00,,FEW,0.00,700.00,VWS V14.01,2013-03-13 20:25:00,
2013-03-13 16:27:00,72.9,58.2,30.03,NNW,343,7.0,16.0,60,0.00,,FEW,0.00,417.00,VWS V14.01,2013-03-13 20:27:00,
2013-03-13 16:29:00,72.7,58.5,30.03,NW,319,6.0,16.0,61,0.00,,FEW,0.00,241.00,VWS V14.01,2013-03-13 20:29:00,
2013-03-13 16:30:00,72.6,58.4,30.03,NW,326,4.0,16.0,61,0.00,,FEW,0.00,250.00,VWS V14.01,2013-03-13 20:30:00,
2013-03-13 16:32:00,72.3,58.1,30.02,NNW,332,8.0,16.0,61,0.00,,FEW,0.00,278.00,VWS V14.01,2013-03-13 20:32:00,
2013-03-13 16:34:00,72.2,58.5,30.02,NW,313,7.0,12.0,62,0.00,,FEW,0.00,341.00,VWS V14.01,2013-03-13 20:34:00,
2013-03-13 16:35:00,72.1,58.4,30.02,North,355,11.0,12.0,62,0.00,,FEW,0.00,345.00,VWS V14.01,2013-03-13 20:35:00,
2013-03-13 16:37:00,72.0,58.3,30.02,NNW,342,7.0,12.0,62,0.00,,FEW,0.00,417.00,VWS V14.01,2013-03-13 20:37:00,
2013-03-13 16:39:00,71.9,58.2,30.02,NNW,333,9.0,15.0,62,0.00,,FEW,0.00,318.00,VWS V14.01,2013-03-13 20:39:00,
2013-03-13 16:40:00,71.8,58.1,30.02,NNW,335,7.0,15.0,62,0.00,,FEW,0.00,304.00,VWS V14.01,2013-03-13 20:40:00,
2013-03-13 16:42:00,71.8,58.5,30.02,NNW,342,7.0,8.0,63,0.00,,FEW,0.00,301.00,VWS V14.01,2013-03-13 20:42:00,
2013-03-13 16:44:00,71.8,58.5,30.02,NW,324,10.0,10.0,63,0.00,,FEW,0.00,297.00,VWS V14.01,2013-03-13 20:44:00,
2013-03-13 16:46:00,71.8,58.5,30.02,North,360,13.0,13.0,63,0.00,,FEW,0.00,320.00,VWS V14.01,2013-03-13 20:46:00,
2013-03-13 16:47:00,71.7,58.0,30.02,NNW,348,4.0,13.0,62,0.00,,FEW,0.00,288.00,VWS V14.01,2013-03-13 20:47:00,
2013-03-13 16:50:00,71.8,58.5,30.02,NW,317,9.0,13.0,63,0.00,,FEW,0.00,315.00,VWS V14.01,2013-03-13 20:50:00,
2013-03-13 16:51:00,71.7,58.5,30.02,North,355,7.0,13.0,63,0.00,,FEW,0.00,329.00,VWS V14.01,2013-03-13 20:51:00,
2013-03-13 16:52:00,71.7,58.5,30.02,North,360,9.0,11.0,63,0.00,,FEW,0.00,309.00,VWS V14.01,2013-03-13 20:52:00,
2013-03-13 16:53:00,71.7,58.5,30.02,North,5,9.0,11.0,63,0.00,,FEW,0.00,309.00,VWS V14.01,2013-03-13 20:53:00,
2013-03-13 16:55:00,71.7,58.5,30.02,North,355,4.0,12.0,63,0.00,,FEW,0.00,316.00,VWS V14.01,2013-03-13 20:55:00,
2013-03-13 16:56:00,71.7,58.5,30.02,NNW,331,13.0,13.0,63,0.00,,FEW,0.00,355.00,VWS V14.01,2013-03-13 20:56:00,
2013-03-13 16:57:00,71.7,58.5,30.02,WNW,292,4.0,13.0,63,0.00,,FEW,0.00,357.00,VWS V14.01,2013-03-13 20:57:00,
2013-03-13 16:58:00,71.7,58.5,30.02,West,269,6.0,13.0,63,0.00,,FEW,0.00,357.00,VWS V14.01,2013-03-13 20:58:00,
2013-03-13 17:00:00,71.8,58.5,30.02,WNW,303,12.0,14.0,63,0.00,,FEW,0.00,316.00,VWS V14.01,2013-03-13 21:00:00,
2013-03-13 17:01:00,71.8,58.5,30.03,NW,317,7.0,14.0,63,0.00,,FEW,0.00,292.00,VWS V14.01,2013-03-13 21:01:00,
2013-03-13 17:03:00,71.8,58.5,30.03,NNW,329,7.0,10.0,63,0.00,,FEW,0.00,294.00,VWS V14.01,2013-03-13 21:03:00,
2013-03-13 17:05:00,71.9,59.1,30.03,NW,325,14.0,15.0,64,0.00,,FEW,0.00,294.00,VWS V14.01,2013-03-13 21:05:00,
2013-03-13 17:06:00,71.8,59.0,30.03,NNW,335,8.0,16.0,64,0.00,,FEW,0.00,325.00,VWS V14.01,2013-03-13 21:06:00,
2013-03-13 17:08:00,71.8,59.0,30.03,NNE,19,9.0,16.0,64,0.00,,FEW,0.00,295.00,VWS V14.01,2013-03-13 21:08:00,
2013-03-13 17:10:00,71.7,58.5,30.03,NW,304,9.0,16.0,63,0.00,,FEW,0.00,271.00,VWS V14.01,2013-03-13 21:10:00,
2013-03-13 17:12:00,71.7,58.0,30.03,North,360,13.0,16.0,62,0.00,,FEW,0.00,346.00,VWS V14.01,2013-03-13 21:12:00,
2013-03-13 17:13:00,71.7,58.5,30.03,NNW,342,10.0,13.0,63,0.00,,FEW,0.00,371.00,VWS V14.01,2013-03-13 21:13:00,
2013-03-13 17:15:00,71.9,58.6,30.03,NW,316,7.0,13.0,63,0.00,,FEW,0.00,485.00,VWS V14.01,2013-03-13 21:15:00,
2013-03-13 17:17:00,72.1,58.4,30.02,NNW,346,8.0,13.0,62,0.00,,FEW,0.00,478.00,VWS V14.01,2013-03-13 21:17:00,
2013-03-13 17:18:00,72.2,58.5,30.02,NW,321,14.0,14.0,62,0.00,,FEW,0.00,483.00,VWS V14.01,2013-03-13 21:18:00,
2013-03-13 17:20:00,72.4,58.2,30.02,NW,313,9.0,14.0,61,0.00,,FEW,0.00,431.00,VWS V14.01,2013-03-13 21:20:00,
2013-03-13 17:22:00,72.6,58.4,30.02,NW,321,9.0,13.0,61,0.00,,FEW,0.00,415.00,VWS V14.01,2013-03-13 21:22:00,
2013-03-13 17:23:00,72.7,58.5,30.02,NNW,327,10.0,13.0,61,0.00,,FEW,0.00,413.00,VWS V14.01,2013-03-13 21:23:00,
2013-03-13 17:25:00,72.9,59.1,30.02,NNW,333,10.0,13.0,62,0.00,,FEW,0.00,445.00,VWS V14.01,2013-03-13 21:25:00,
2013-03-13 17:27:00,73.0,59.2,30.02,NNW,334,7.0,13.0,62,0.00,,FEW,0.00,406.00,VWS V14.01,2013-03-13 21:27:00,
2013-03-13 17:28:00,73.1,58.9,30.02,NNW,333,9.0,13.0,61,0.00,,FEW,0.00,411.00,VWS V14.01,2013-03-13 21:28:00,
2013-03-13 17:29:00,73.1,58.9,30.02,NW,305,6.0,13.0,61,0.00,,FEW,0.00,406.00,VWS V14.01,2013-03-13 21:29:00,
2013-03-13 17:31:00,73.2,59.0,30.02,NNW,348,6.0,13.0,61,0.00,,FEW,0.00,466.00,VWS V14.01,2013-03-13 21:31:00,
2013-03-13 17:33:00,73.2,59.0,30.03,NNW,334,8.0,12.0,61,0.00,,FEW,0.00,350.00,VWS V14.01,2013-03-13 21:33:00,
2013-03-13 17:34:00,73.2,59.0,30.03,NW,322,6.0,12.0,61,0.00,,FEW,0.00,350.00,VWS V14.01,2013-03-13 21:34:00,
2013-03-13 17:36:00,73.2,59.4,30.03,NNW,327,13.0,13.0,62,0.00,,FEW,0.00,345.00,VWS V14.01,2013-03-13 21:36:00,
2013-03-13 17:38:00,73.1,59.3,30.03,NNW,345,7.0,13.0,62,0.00,,FEW,0.00,294.00,VWS V14.01,2013-03-13 21:38:00,
2013-03-13 17:39:00,73.1,59.3,30.03,NNW,345,7.0,13.0,62,0.00,,FEW,0.00,294.00,VWS V14.01,2013-03-13 21:39:00,
2013-03-13 17:42:00,73.0,59.2,30.03,NNW,333,10.0,13.0,62,0.00,,FEW,0.00,199.00,VWS V14.01,2013-03-13 21:42:00,
2013-03-13 17:44:00,72.8,59.0,30.03,NW,325,4.0,12.0,62,0.00,,FEW,0.00,165.00,VWS V14.01,2013-03-13 21:44:00,
2013-03-13 17:47:00,72.6,59.3,30.03,NNW,330,9.0,12.0,63,0.00,,FEW,0.00,181.00,VWS V14.01,2013-03-13 21:47:00,
2013-03-13 17:49:00,72.4,59.1,30.03,NNW,339,12.0,14.0,63,0.00,,FEW,0.00,176.00,VWS V14.01,2013-03-13 21:49:00,
2013-03-13 17:52:00,72.1,59.3,30.03,NW,309,10.0,10.0,64,0.00,,FEW,0.00,163.00,VWS V14.01,2013-03-13 21:52:00,
2013-03-13 17:54:00,72.0,59.6,30.03,NW,325,10.0,10.0,65,0.00,,FEW,0.00,156.00,VWS V14.01,2013-03-13 21:54:00,
2013-03-13 17:58:00,71.9,60.4,30.03,North,355,8.0,12.0,67,0.00,,FEW,0.00,135.00,VWS V14.01,2013-03-13 21:58:00,
2013-03-13 17:59:00,71.9,60.4,30.03,NW,325,7.0,12.0,67,0.00,,FEW,0.00,135.00,VWS V14.01,2013-03-13 21:59:00,
2013-03-13 18:00:00,71.9,60.4,30.03,NNW,340,6.0,12.0,67,0.00,,FEW,0.00,137.00,VWS V14.01,2013-03-13 22:00:00,
2013-03-13 18:03:00,71.8,60.3,30.03,North,360,9.0,13.0,67,0.00,,FEW,0.00,151.00,VWS V14.01,2013-03-13 22:03:00,
2013-03-13 18:04:00,71.8,60.7,30.03,NNW,340,7.0,13.0,68,0.00,,FEW,0.00,151.00,VWS V14.01,2013-03-13 22:04:00,
2013-03-13 18:05:00,71.8,60.7,30.03,NNW,328,13.0,13.0,68,0.00,,FEW,0.00,151.00,VWS V14.01,2013-03-13 22:05:00,
2013-03-13 18:08:00,71.7,60.6,30.03,NNW,329,5.0,13.0,68,0.00,,FEW,0.00,172.00,VWS V14.01,2013-03-13 22:08:00,
2013-03-13 18:09:00,71.7,60.6,30.03,NNW,339,4.0,13.0,68,0.00,,FEW,0.00,178.00,VWS V14.01,2013-03-13 22:09:00,
2013-03-13 18:10:00,71.8,61.1,30.03,NNW,329,4.0,13.0,69,0.00,,FEW,0.00,178.00,VWS V14.01,2013-03-13 22:10:00,
2013-03-13 18:13:00,72.0,60.9,30.03,North,349,4.0,7.0,68,0.00,,FEW,0.00,179.00,VWS V14.01,2013-03-13 22:13:00,
2013-03-13 18:14:00,72.0,60.5,30.03,North,350,8.0,10.0,67,0.00,,FEW,0.00,197.00,VWS V14.01,2013-03-13 22:14:00,
2013-03-13 18:15:00,72.1,60.5,30.03,NNE,13,7.0,10.0,67,0.00,,FEW,0.00,199.00,VWS V14.01,2013-03-13 22:15:00,
2013-03-13 18:18:00,72.4,57.3,30.03,NE,36,13.0,13.0,59,0.00,,FEW,0.00,223.00,VWS V14.01,2013-03-13 22:18:00,
2013-03-13 18:20:00,72.6,56.0,30.03,NNE,22,8.0,13.0,56,0.00,,FEW,0.00,207.00,VWS V14.01,2013-03-13 22:20:00,
2013-03-13 18:23:00,73.1,56.5,30.03,NNE,19,12.0,15.0,56,0.00,,FEW,0.00,188.00,VWS V14.01,2013-03-13 22:23:00,
2013-03-13 18:25:00,73.2,55.6,30.03,NNE,24,7.0,15.0,54,0.00,,FEW,0.00,176.00,VWS V14.01,2013-03-13 22:25:00,
2013-03-13 18:28:00,73.4,55.8,30.03,NNE,32,10.0,15.0,54,0.00,,FEW,0.00,155.00,VWS V14.01,2013-03-13 22:28:00,
2013-03-13 18:30:00,73.5,54.8,30.03,NE,52,7.0,15.0,52,0.00,,FEW,0.00,137.00,VWS V14.01,2013-03-13 22:30:00,
2013-03-13 18:33:00,73.5,54.3,30.03,NNE,24,5.0,11.0,51,0.00,,FEW,0.00,116.00,VWS V14.01,2013-03-13 22:33:00,
2013-03-13 18:35:00,73.5,54.3,30.03,North,360,10.0,11.0,51,0.00,,FEW,0.00,100.00,VWS V14.01,2013-03-13 22:35:00,
2013-03-13 18:39:00,73.5,54.8,30.03,North,355,12.0,12.0,52,0.00,,FEW,0.00,83.00,VWS V14.01,2013-03-13 22:39:00,
2013-03-13 18:40:00,73.4,54.7,30.03,NE,44,8.0,12.0,52,0.00,,FEW,0.00,81.00,VWS V14.01,2013-03-13 22:40:00,
2013-03-13 18:44:00,73.4,55.2,30.03,NNE,15,7.0,11.0,53,0.00,,FEW,0.00,76.00,VWS V14.01,2013-03-13 22:44:00,
2013-03-13 18:45:00,73.3,55.2,30.03,NE,40,7.0,11.0,53,0.00,,FEW,0.00,72.00,VWS V14.01,2013-03-13 22:45:00,
2013-03-13 18:49:00,73.2,55.6,30.04,NE,34,7.0,11.0,54,0.00,,FEW,0.00,65.00,VWS V14.01,2013-03-13 22:49:00,
2013-03-13 18:50:00,73.1,55.0,30.04,North,360,11.0,11.0,53,0.00,,FEW,0.00,60.00,VWS V14.01,2013-03-13 22:50:00,
2013-03-13 18:54:00,73.1,55.0,30.04,North,355,10.0,14.0,53,0.00,,FEW,0.00,53.00,VWS V14.01,2013-03-13 22:54:00,
2013-03-13 18:55:00,73.0,55.4,30.04,NNE,22,6.0,14.0,54,0.00,,FEW,0.00,49.00,VWS V14.01,2013-03-13 22:55:00,
2013-03-13 18:59:00,73.0,56.4,30.04,North,9,3.0,14.0,56,0.00,,FEW,0.00,42.00,VWS V14.01,2013-03-13 22:59:00,
2013-03-13 19:00:00,72.9,55.8,30.04,NE,51,3.0,14.0,55,0.00,,FEW,0.00,40.00,VWS V14.01,2013-03-13 23:00:00,
2013-03-13 19:01:00,72.9,55.8,30.04,NE,56,5.0,14.0,55,0.00,,FEW,0.00,39.00,VWS V14.01,2013-03-13 23:01:00,
2013-03-13 19:04:00,72.8,56.2,30.04,NNE,16,8.0,9.0,56,0.00,,FEW,0.00,33.00,VWS V14.01,2013-03-13 23:04:00,
2013-03-13 19:05:00,72.8,55.7,30.04,NNE,21,7.0,9.0,55,0.00,,FEW,0.00,32.00,VWS V14.01,2013-03-13 23:05:00,
2013-03-13 19:06:00,72.8,55.7,30.04,NNE,22,4.0,9.0,55,0.00,,FEW,0.00,28.00,VWS V14.01,2013-03-13 23:06:00,
2013-03-13 19:09:00,72.7,55.6,30.04,NE,52,4.0,15.0,55,0.00,,FEW,0.00,25.00,VWS V14.01,2013-03-13 23:09:00,
2013-03-13 19:10:00,72.6,55.5,30.04,NNE,23,6.0,15.0,55,0.00,,FEW,0.00,23.00,VWS V14.01,2013-03-13 23:10:00,
2013-03-13 19:11:00,72.7,55.6,30.04,NNE,32,5.0,15.0,55,0.00,,FEW,0.00,23.00,VWS V14.01,2013-03-13 23:11:00,
2013-03-13 19:14:00,72.6,55.5,30.04,NNE,20,7.0,9.0,55,0.00,,FEW,0.00,21.00,VWS V14.01,2013-03-13 23:14:00,
2013-03-13 19:15:00,72.6,55.0,30.04,NE,48,5.0,9.0,54,0.00,,FEW,0.00,18.00,VWS V14.01,2013-03-13 23:15:00,
2013-03-13 19:16:00,72.6,55.0,30.04,NNE,20,4.0,9.0,54,0.00,,FEW,0.00,18.00,VWS V14.01,2013-03-13 23:16:00,
2013-03-13 19:19:00,72.5,55.4,30.05,NNE,19,10.0,14.0,55,0.00,,FEW,0.00,14.00,VWS V14.01,2013-03-13 23:19:00,
2013-03-13 19:20:00,72.5,54.4,30.05,NNE,23,3.0,14.0,53,0.00,,FEW,0.00,12.00,VWS V14.01,2013-03-13 23:20:00,
2013-03-13 19:21:00,72.5,54.4,30.05,NE,52,3.0,14.0,53,0.00,,FEW,0.00,12.00,VWS V14.01,2013-03-13 23:21:00,
2013-03-13 19:24:00,72.5,54.4,30.05,North,360,8.0,10.0,53,0.00,,FEW,0.00,9.00,VWS V14.01,2013-03-13 23:24:00,
2013-03-13 19:25:00,72.5,54.4,30.05,North,360,7.0,11.0,53,0.00,,FEW,0.00,7.00,VWS V14.01,2013-03-13 23:25:00,
2013-03-13 19:26:00,72.5,54.9,30.05,NNW,339,10.0,11.0,54,0.00,,FEW,0.00,7.00,VWS V14.01,2013-03-13 23:26:00,
2013-03-13 19:29:00,72.5,54.9,30.05,North,5,4.0,12.0,54,0.00,,FEW,0.00,0.00,VWS V14.01,2013-03-13 23:29:00,
2013-03-13 19:30:00,72.5,54.9,30.05,North,5,6.0,12.0,54,0.00,,FEW,0.00,0.00,VWS V14.01,2013-03-13 23:30:00,
2013-03-13 19:31:00,72.4,54.8,30.05,NNE,13,5.0,12.0,54,0.00,,FEW,0.00,0.00,VWS V14.01,2013-03-13 23:31:00,
2013-03-13 19:34:00,72.4,54.8,30.05,North,5,5.0,10.0,54,0.00,,FEW,0.00,0.00,VWS V14.01,2013-03-13 23:34:00,
2013-03-13 19:36:00,72.4,54.3,30.05,North,355,5.0,13.0,53,0.00,,FEW,0.00,0.00,VWS V14.01,2013-03-13 23:36:00,
2013-03-13 19:39:00,72.4,54.8,30.05,NNE,19,4.0,13.0,54,0.00,,FEW,0.00,0.00,VWS V14.01,2013-03-13 23:39:00,
2013-03-13 19:41:00,72.4,55.3,30.05,NNE,26,12.0,13.0,55,0.00,,FEW,0.00,0.00,VWS V14.01,2013-03-13 23:41:00,
2013-03-13 19:42:00,72.4,54.8,30.05,North,9,6.0,7.0,54,0.00,,FEW,0.00,0.00,VWS V14.01,2013-03-13 23:42:00,
2013-03-13 19:44:00,72.4,54.3,30.05,North,9,8.0,9.0,53,0.00,,FEW,0.00,0.00,VWS V14.01,2013-03-13 23:44:00,
2013-03-13 19:47:00,72.3,53.7,30.06,NE,42,6.0,12.0,52,0.00,,FEW,0.00,0.00,VWS V14.01,2013-03-13 23:47:00,
2013-03-13 19:48:00,72.3,53.7,30.06,NNW,344,9.0,12.0,52,0.00,,FEW,0.00,0.00,VWS V14.01,2013-03-13 23:48:00,
2013-03-13 19:49:00,72.3,54.2,30.06,NNE,26,6.0,12.0,53,0.00,,FEW,0.00,0.00,VWS V14.01,2013-03-13 23:49:00,
2013-03-13 19:52:00,72.3,54.2,30.06,North,355,4.0,6.0,53,0.00,,FEW,0.00,0.00,VWS V14.01,2013-03-13 23:52:00,
2013-03-13 19:53:00,72.3,55.2,30.06,North,360,4.0,7.0,55,0.00,,FEW,0.00,0.00,VWS V14.01,2013-03-13 23:53:00,
2013-03-13 19:54:00,72.4,57.3,30.06,NNW,346,7.0,8.0,59,0.00,,FEW,0.00,0.00,VWS V14.01,2013-03-13 23:54:00,
2013-03-13 19:57:00,72.4,60.4,30.06,NE,41,8.0,9.0,66,0.00,,FEW,0.00,0.00,VWS V14.01,2013-03-13 23:57:00,
2013-03-13 19:58:00,72.3,60.7,30.06,NNW,337,8.0,9.0,67,0.00,,FEW,0.00,0.00,VWS V14.01,2013-03-13 23:58:00,
2013-03-13 19:59:00,72.1,60.5,30.06,NNW,348,5.0,9.0,67,0.00,,FEW,0.00,0.00,VWS V14.01,2013-03-13 23:59:00,
2013-03-13 20:02:00,71.7,60.6,30.06,NW,317,3.0,8.0,68,0.00,,FEW,0.00,0.00,VWS V14.01,2013-03-14 00:02:00,
2013-03-13 20:03:00,71.6,60.9,30.06,NNW,327,9.0,9.0,69,0.00,,FEW,0.00,0.00,VWS V14.01,2013-03-14 00:03:00,
2013-03-13 20:05:00,71.5,61.2,30.06,NNW,347,7.0,11.0,70,0.00,,FEW,0.00,0.00,VWS V14.01,2013-03-14 00:05:00,
2013-03-13 20:08:00,71.1,61.2,30.06,North,9,7.0,11.0,71,0.00,,FEW,0.00,0.00,VWS V14.01,2013-03-14 00:08:00,
2013-03-13 20:10:00,70.9,61.0,30.06,NNW,348,7.0,11.0,71,0.00,,FEW,0.00,0.00,VWS V14.01,2013-03-14 00:10:00,
2013-03-13 20:13:00,70.7,61.2,30.06,NNW,347,6.0,7.0,72,0.00,,FEW,0.00,0.00,VWS V14.01,2013-03-14 00:13:00,
2013-03-13 20:15:00,70.6,61.1,30.06,North,351,6.0,10.0,72,0.00,,FEW,0.00,0.00,VWS V14.01,2013-03-14 00:15:00,
2013-03-13 20:18:00,70.4,61.3,30.07,North,9,5.0,10.0,73,0.00,,FEW,0.00,0.00,VWS V14.01,2013-03-14 00:18:00,
2013-03-13 20:19:00,70.4,61.3,30.07,North,9,7.0,10.0,73,0.00,,FEW,0.00,0.00,VWS V14.01,2013-03-14 00:19:00,
2013-03-13 20:20:00,70.4,61.3,30.07,North,5,3.0,10.0,73,0.00,,FEW,0.00,0.00,VWS V14.01,2013-03-14 00:20:00,
2013-03-13 20:23:00,70.2,61.2,30.07,NNW,327,3.0,8.0,73,0.00,,FEW,0.00,0.00,VWS V14.01,2013-03-14 00:23:00,
2013-03-13 20:24:00,70.2,61.2,30.07,NW,313,7.0,9.0,73,0.00,,FEW,0.00,0.00,VWS V14.01,2013-03-14 00:24:00,
2013-03-13 20:25:00,70.2,61.2,30.07,NNW,329,5.0,9.0,73,0.00,,FEW,0.00,0.00,VWS V14.01,2013-03-14 00:25:00,
2013-03-13 20:28:00,70.2,61.5,30.07,NNW,342,7.0,9.0,74,0.00,,FEW,0.00,0.00,VWS V14.01,2013-03-14 00:28:00,
2013-03-13 20:29:00,70.2,61.5,30.07,NNW,348,5.0,9.0,74,0.00,,FEW,0.00,0.00,VWS V14.01,2013-03-14 00:29:00,
2013-03-13 20:30:00,70.2,61.5,30.07,WNW,303,7.0,9.0,74,0.00,,FEW,0.00,0.00,VWS V14.01,2013-03-14 00:30:00,
2013-03-13 20:33:00,70.2,61.9,30.07,NW,321,9.0,12.0,75,0.00,,FEW,0.00,0.00,VWS V14.01,2013-03-14 00:33:00,
2013-03-13 20:34:00,70.2,61.9,30.07,North,350,7.0,12.0,75,0.00,,FEW,0.00,0.00,VWS V14.01,2013-03-14 00:34:00,
2013-03-13 20:35:00,70.2,62.3,30.07,NW,321,5.0,12.0,76,0.00,,FEW,0.00,0.00,VWS V14.01,2013-03-14 00:35:00,
2013-03-13 20:38:00,70.2,62.3,30.07,North,350,6.0,12.0,76,0.00,,FEW,0.00,0.00,VWS V14.01,2013-03-14 00:38:00,
2013-03-13 20:39:00,70.2,62.3,30.07,WNW,300,10.0,12.0,76,0.00,,FEW,0.00,0.00,VWS V14.01,2013-03-14 00:39:00,
2013-03-13 20:40:00,70.1,62.2,30.07,NW,325,8.0,12.0,76,0.00,,FEW,0.00,0.00,VWS V14.01,2013-03-14 00:40:00,
2013-03-13 20:43:00,70.0,62.1,30.07,North,9,4.0,9.0,76,0.00,,FEW,0.00,0.00,VWS V14.01,2013-03-14 00:43:00,
2013-03-13 20:44:00,70.0,62.5,30.07,NNW,334,9.0,10.0,77,0.00,,FEW,0.00,0.00,VWS V14.01,2013-03-14 00:44:00,
2013-03-13 20:45:00,70.0,62.5,30.07,North,360,7.0,10.0,77,0.00,,FEW,0.00,0.00,VWS V14.01,2013-03-14 00:45:00,
2013-03-13 20:48:00,69.9,62.4,30.08,NNW,329,4.0,10.0,77,0.00,,FEW,0.00,0.00,VWS V14.01,2013-03-14 00:48:00,
2013-03-13 20:49:00,69.9,62.4,30.08,NW,323,10.0,10.0,77,0.00,,FEW,0.00,0.00,VWS V14.01,2013-03-14 00:49:00,
2013-03-13 20:50:00,69.8,62.3,30.08,NNW,339,5.0,10.0,77,0.00,,FEW,0.00,0.00,VWS V14.01,2013-03-14 00:50:00,
2013-03-13 20:53:00,69.7,62.2,30.08,North,355,5.0,8.0,77,0.00,,FEW,0.00,0.00,VWS V14.01,2013-03-14 00:53:00,
2013-03-13 20:54:00,69.8,62.6,30.08,NNE,16,4.0,8.0,78,0.00,,FEW,0.00,0.00,VWS V14.01,2013-03-14 00:54:00,
2013-03-13 20:55:00,69.8,62.6,30.08,NNW,331,8.0,8.0,78,0.00,,FEW,0.00,0.00,VWS V14.01,2013-03-14 00:55:00,
2013-03-13 20:58:00,69.8,62.6,30.08,North,351,8.0,11.0,78,0.00,,FEW,0.00,0.00,VWS V14.01,2013-03-14 00:58:00,
2013-03-13 20:59:00,69.8,62.6,30.08,NNE,13,10.0,11.0,78,0.00,,FEW,0.00,0.00,VWS V14.01,2013-03-14 00:59:00,
2013-03-13 21:00:00,69.8,63.0,30.08,NW,325,5.0,11.0,79,0.00,,FEW,0.00,0.00,VWS V14.01,2013-03-14 01:00:00,
2013-03-13 21:04:00,69.7,62.5,30.08,North,5,7.0,10.0,78,0.00,,FEW,0.00,0.00,VWS V14.01,2013-03-14 01:04:00,
2013-03-13 21:05:00,69.6,62.4,30.08,North,349,7.0,10.0,78,0.00,,FEW,0.00,0.00,VWS V14.01,2013-03-14 01:05:00,
2013-03-13 21:09:00,69.5,62.7,30.08,NNW,333,9.0,10.0,79,0.00,,FEW,0.00,0.00,VWS V14.01,2013-03-14 01:09:00,
2013-03-13 21:10:00,69.5,62.7,30.08,NNW,331,4.0,10.0,79,0.00,,FEW,0.00,0.00,VWS V14.01,2013-03-14 01:10:00,
2013-03-13 21:14:00,69.4,62.6,30.08,North,355,8.0,11.0,79,0.00,,FEW,0.00,0.00,VWS V14.01,2013-03-14 01:14:00,
2013-03-13 21:15:00,69.4,62.6,30.08,North,355,6.0,11.0,79,0.00,,FEW,0.00,0.00,VWS V14.01,2013-03-14 01:15:00,
2013-03-13 21:19:00,69.3,62.5,30.08,North,5,7.0,11.0,79,0.00,,FEW,0.00,0.00,VWS V14.01,2013-03-14 01:19:00,
2013-03-13 21:20:00,69.3,62.5,30.08,North,5,7.0,11.0,79,0.00,,FEW,0.00,0.00,VWS V14.01,2013-03-14 01:20:00,
2013-03-13 21:24:00,69.2,62.4,30.08,North,355,5.0,11.0,79,0.00,,FEW,0.00,0.00,VWS V14.01,2013-03-14 01:24:00,
2013-03-13 21:25:00,69.2,62.4,30.08,NNW,338,7.0,11.0,79,0.00,,FEW,0.00,0.00,VWS V14.01,2013-03-14 01:25:00,
2013-03-13 21:29:00,69.2,62.8,30.08,North,355,5.0,12.0,80,0.00,,FEW,0.00,0.00,VWS V14.01,2013-03-14 01:29:00,
2013-03-13 21:30:00,69.1,62.7,30.08,NNW,333,8.0,12.0,80,0.00,,FEW,0.00,0.00,VWS V14.01,2013-03-14 01:30:00,
2013-03-13 21:31:00,69.1,62.7,30.08,NW,315,5.0,12.0,80,0.00,,FEW,0.00,0.00,VWS V14.01,2013-03-14 01:31:00,
2013-03-13 21:34:00,69.0,62.6,30.08,WNW,286,7.0,10.0,80,0.00,,FEW,0.00,0.00,VWS V14.01,2013-03-14 01:34:00,
2013-03-13 21:35:00,69.0,62.6,30.08,NNW,333,8.0,10.0,80,0.00,,FEW,0.00,0.00,VWS V14.01,2013-03-14 01:35:00,
2013-03-13 21:36:00,69.0,62.6,30.08,NNW,341,8.0,10.0,80,0.00,,FEW,0.00,0.00,VWS V14.01,2013-03-14 01:36:00,
2013-03-13 21:39:00,68.9,62.8,30.08,NNW,342,9.0,10.0,81,0.00,,FEW,0.00,0.00,VWS V14.01,2013-03-14 01:39:00,
2013-03-13 21:40:00,68.9,62.5,30.08,NNW,343,8.0,10.0,80,0.00,,FEW,0.00,0.00,VWS V14.01,2013-03-14 01:40:00,
2013-03-13 21:41:00,68.9,62.5,30.08,NNW,343,8.0,10.0,80,0.00,,FEW,0.00,0.00,VWS V14.01,2013-03-14 01:41:00,
2013-03-13 21:44:00,68.7,61.9,30.08,NNW,340,7.0,10.0,79,0.00,,FEW,0.00,0.00,VWS V14.01,2013-03-14 01:44:00,
2013-03-13 21:45:00,68.7,61.9,30.08,NNW,332,5.0,10.0,79,0.00,,FEW,0.00,0.00,VWS V14.01,2013-03-14 01:45:00,
2013-03-13 21:46:00,68.7,61.9,30.08,NW,312,6.0,10.0,79,0.00,,FEW,0.00,0.00,VWS V14.01,2013-03-14 01:46:00,
2013-03-13 21:49:00,68.8,62.4,30.09,NNW,348,5.0,12.0,80,0.00,,FEW,0.00,0.00,VWS V14.01,2013-03-14 01:49:00,
2013-03-13 21:50:00,68.8,62.4,30.09,North,360,7.0,12.0,80,0.00,,FEW,0.00,0.00,VWS V14.01,2013-03-14 01:50:00,
2013-03-13 21:51:00,68.8,62.4,30.09,NNW,340,8.0,12.0,80,0.00,,FEW,0.00,0.00,VWS V14.01,2013-03-14 01:51:00,
2013-03-13 21:52:00,68.8,62.4,30.09,NNW,340,8.0,12.0,80,0.00,,FEW,0.00,0.00,VWS V14.01,2013-03-14 01:52:00,
2013-03-13 21:54:00,68.8,62.7,30.09,North,355,10.0,11.0,81,0.00,,FEW,0.00,0.00,VWS V14.01,2013-03-14 01:54:00,
2013-03-13 21:55:00,68.9,62.8,30.09,NNW,336,7.0,11.0,81,0.00,,FEW,0.00,0.00,VWS V14.01,2013-03-14 01:55:00,
2013-03-13 21:57:00,68.8,62.4,30.09,NNW,327,6.0,14.0,80,0.00,,FEW,0.00,0.00,VWS V14.01,2013-03-14 01:57:00,
2013-03-13 21:59:00,68.7,62.3,30.09,North,355,11.0,14.0,80,0.00,,FEW,0.00,0.00,VWS V14.01,2013-03-14 01:59:00,
2013-03-13 22:00:00,68.7,62.3,30.09,North,360,7.0,14.0,80,0.00,,FEW,0.00,0.00,VWS V14.01,2013-03-14 02:00:00,
2013-03-13 22:02:00,68.7,62.3,30.09,NNW,347,9.0,14.0,80,0.00,,FEW,0.00,0.00,VWS V14.01,2013-03-14 02:02:00,
2013-03-13 22:04:00,68.8,62.4,30.09,NNW,344,3.0,10.0,80,0.00,,FEW,0.00,0.00,VWS V14.01,2013-03-14 02:04:00,
2013-03-13 22:05:00,68.8,62.4,30.09,North,355,5.0,10.0,80,0.00,,FEW,0.00,0.00,VWS V14.01,2013-03-14 02:05:00,
2013-03-13 22:07:00,68.7,62.3,30.09,North,351,10.0,12.0,80,0.00,,FEW,0.00,0.00,VWS V14.01,2013-03-14 02:07:00,
2013-03-13 22:09:00,68.6,62.2,30.09,NNW,340,10.0,12.0,80,0.00,,FEW,0.00,0.00,VWS V14.01,2013-03-14 02:09:00,
2013-03-13 22:10:00,68.6,62.2,30.09,NNW,331,8.0,12.0,80,0.00,,FEW,0.00,0.00,VWS V14.01,2013-03-14 02:10:00,
2013-03-13 22:12:00,68.6,62.2,30.09,North,5,9.0,12.0,80,0.00,,FEW,0.00,0.00,VWS V14.01,2013-03-14 02:12:00,
2013-03-13 22:14:00,68.6,62.2,30.09,North,355,9.0,10.0,80,0.00,,FEW,0.00,0.00,VWS V14.01,2013-03-14 02:14:00,
2013-03-13 22:15:00,68.7,62.6,30.09,NW,319,8.0,10.0,81,0.00,,FEW,0.00,0.00,VWS V14.01,2013-03-14 02:15:00,
2013-03-13 22:17:00,68.7,62.6,30.10,North,355,10.0,12.0,81,0.00,,FEW,0.00,0.00,VWS V14.01,2013-03-14 02:17:00,
2013-03-13 22:19:00,68.6,62.5,30.10,North,5,6.0,12.0,81,0.00,,FEW,0.00,0.00,VWS V14.01,2013-03-14 02:19:00,
2013-03-13 22:20:00,68.6,62.5,30.10,North,355,8.0,12.0,81,0.00,,FEW,0.00,0.00,VWS V14.01,2013-03-14 02:20:00,
2013-03-13 22:22:00,68.6,62.2,30.10,NNW,327,8.0,14.0,80,0.00,,FEW,0.00,0.00,VWS V14.01,2013-03-14 02:22:00,
2013-03-13 22:24:00,68.6,62.2,30.10,NNW,332,7.0,14.0,80,0.00,,FEW,0.00,0.00,VWS V14.01,2013-03-14 02:24:00,
2013-03-13 22:25:00,68.6,62.2,30.10,NW,315,8.0,14.0,80,0.00,,FEW,0.00,0.00,VWS V14.01,2013-03-14 02:25:00,
2013-03-13 22:27:00,68.6,62.2,30.10,NNW,338,7.0,14.0,80,0.00,,FEW,0.00,0.00,VWS V14.01,2013-03-14 02:27:00,
2013-03-13 22:29:00,68.6,62.2,30.10,North,10,7.0,14.0,80,0.00,,FEW,0.00,0.00,VWS V14.01,2013-03-14 02:29:00,
2013-03-13 22:30:00,68.5,62.1,30.10,North,360,10.0,14.0,80,0.00,,FEW,0.00,0.00,VWS V14.01,2013-03-14 02:30:00,
2013-03-13 22:32:00,68.5,62.1,30.10,NNE,15,7.0,8.0,80,0.00,,FEW,0.00,0.00,VWS V14.01,2013-03-14 02:32:00,
2013-03-13 22:34:00,68.6,62.2,30.10,NNW,338,6.0,8.0,80,0.00,,FEW,0.00,0.00,VWS V14.01,2013-03-14 02:34:00,
2013-03-13 22:35:00,68.6,62.2,30.10,NW,323,5.0,9.0,80,0.00,,FEW,0.00,0.00,VWS V14.01,2013-03-14 02:35:00,
2013-03-13 22:37:00,68.7,62.6,30.10,NW,319,8.0,10.0,81,0.00,,FEW,0.00,0.00,VWS V14.01,2013-03-14 02:37:00,
2013-03-13 22:38:00,68.7,62.6,30.10,NNW,346,5.0,10.0,81,0.00,,FEW,0.00,0.00,VWS V14.01,2013-03-14 02:38:00,
2013-03-13 22:40:00,68.7,62.6,30.10,NW,323,6.0,10.0,81,0.00,,FEW,0.00,0.00,VWS V14.01,2013-03-14 02:40:00,
2013-03-13 22:41:00,68.7,62.6,30.10,North,355,9.0,10.0,81,0.00,,FEW,0.00,0.00,VWS V14.01,2013-03-14 02:41:00,
2013-03-13 22:42:00,68.6,62.2,30.10,North,5,9.0,9.0,80,0.00,,FEW,0.00,0.00,VWS V14.01,2013-03-14 02:42:00,
2013-03-13 22:43:00,68.6,62.2,30.10,NNW,338,10.0,10.0,80,0.00,,FEW,0.00,0.00,VWS V14.01,2013-03-14 02:43:00,
2013-03-13 22:45:00,68.5,62.1,30.10,NW,307,4.0,10.0,80,0.00,,FEW,0.00,0.00,VWS V14.01,2013-03-14 02:45:00,
2013-03-13 22:46:00,68.5,62.1,30.10,NNW,345,6.0,10.0,80,0.00,,FEW,0.00,0.00,VWS V14.01,2013-03-14 02:46:00,
2013-03-13 22:48:00,68.5,62.1,30.11,NW,325,4.0,11.0,80,0.00,,FEW,0.00,0.00,VWS V14.01,2013-03-14 02:48:00,
2013-03-13 22:50:00,68.5,62.1,30.11,North,11,6.0,11.0,80,0.00,,FEW,0.00,0.00,VWS V14.01,2013-03-14 02:50:00,
2013-03-13 22:51:00,68.5,62.1,30.11,NNW,347,10.0,11.0,80,0.00,,FEW,0.00,0.00,VWS V14.01,2013-03-14 02:51:00,
2013-03-13 22:53:00,68.4,62.0,30.11,NW,314,5.0,7.0,80,0.00,,FEW,0.00,0.00,VWS V14.01,2013-03-14 02:53:00,
2013-03-13 22:55:00,68.4,62.0,30.11,NW,321,9.0,15.0,80,0.00,,FEW,0.00,0.00,VWS V14.01,2013-03-14 02:55:00,
2013-03-13 22:56:00,68.5,62.1,30.11,NNW,337,8.0,15.0,80,0.00,,FEW,0.00,0.00,VWS V14.01,2013-03-14 02:56:00,
2013-03-13 22:58:00,68.5,62.1,30.11,NNW,343,4.0,15.0,80,0.00,,FEW,0.00,0.00,VWS V14.01,2013-03-14 02:58:00,
2013-03-13 23:00:00,68.5,62.1,30.11,North,355,10.0,15.0,80,0.00,,FEW,0.00,0.00,VWS V14.01,2013-03-14 03:00:00,
2013-03-13 23:01:00,68.5,62.1,30.11,NNW,340,8.0,15.0,80,0.00,,FEW,0.00,0.00,VWS V14.01,2013-03-14 03:01:00,
2013-03-13 23:03:00,68.5,62.1,30.11,NNE,22,7.0,11.0,80,0.00,,FEW,0.00,0.00,VWS V14.01,2013-03-14 03:03:00,
2013-03-13 23:05:00,68.4,62.0,30.11,NNW,340,5.0,11.0,80,0.00,,FEW,0.00,0.00,VWS V14.01,2013-03-14 03:05:00,
2013-03-13 23:06:00,68.4,62.0,30.11,NNW,344,8.0,11.0,80,0.00,,FEW,0.00,0.00,VWS V14.01,2013-03-14 03:06:00,
2013-03-13 23:08:00,68.5,62.5,30.11,NNW,338,3.0,11.0,81,0.00,,FEW,0.00,0.00,VWS V14.01,2013-03-14 03:08:00,
2013-03-13 23:10:00,68.5,62.1,30.11,NNW,346,7.0,11.0,80,0.00,,FEW,0.00,0.00,VWS V14.01,2013-03-14 03:10:00,
2013-03-13 23:11:00,68.4,62.0,30.11,NW,321,7.0,11.0,80,0.00,,FEW,0.00,0.00,VWS V14.01,2013-03-14 03:11:00,
2013-03-13 23:13:00,68.4,62.0,30.11,NNW,336,5.0,7.0,80,0.00,,FEW,0.00,0.00,VWS V14.01,2013-03-14 03:13:00,
2013-03-13 23:15:00,68.4,61.6,30.11,North,355,9.0,11.0,79,0.00,,FEW,0.00,0.00,VWS V14.01,2013-03-14 03:15:00,
2013-03-13 23:16:00,68.4,61.6,30.11,NNW,331,6.0,11.0,79,0.00,,FEW,0.00,0.00,VWS V14.01,2013-03-14 03:16:00,
2013-03-13 23:18:00,68.4,61.6,30.11,NW,323,9.0,11.0,79,0.00,,FEW,0.00,0.00,VWS V14.01,2013-03-14 03:18:00,
2013-03-13 23:19:00,68.4,61.3,30.11,NNW,346,7.0,11.0,78,0.00,,FEW,0.00,0.00,VWS V14.01,2013-03-14 03:19:00,
2013-03-13 23:20:00,68.4,61.3,30.11,NW,310,11.0,11.0,78,0.00,,FEW,0.00,0.00,VWS V14.01,2013-03-14 03:20:00,
2013-03-13 23:22:00,68.4,61.3,30.11,North,5,11.0,11.0,78,0.00,,FEW,0.00,0.00,VWS V14.01,2013-03-14 03:22:00,
2013-03-13 23:23:00,68.4,61.3,30.11,NNW,334,8.0,11.0,78,0.00,,FEW,0.00,0.00,VWS V14.01,2013-03-14 03:23:00,
2013-03-13 23:24:00,68.4,61.3,30.11,NNW,344,4.0,11.0,78,0.00,,FEW,0.00,0.00,VWS V14.01,2013-03-14 03:24:00,
2013-03-13 23:25:00,68.5,61.4,30.11,NNW,344,9.0,11.0,78,0.00,,FEW,0.00,0.00,VWS V14.01,2013-03-14 03:25:00,
2013-03-13 23:27:00,68.5,61.7,30.11,NNW,348,9.0,11.0,79,0.00,,FEW,0.00,0.00,VWS V14.01,2013-03-14 03:27:00,
2013-03-13 23:28:00,68.6,61.8,30.11,NNW,337,4.0,11.0,79,0.00,,FEW,0.00,0.00,VWS V14.01,2013-03-14 03:28:00,
2013-03-13 23:29:00,68.6,61.8,30.11,NW,318,7.0,11.0,79,0.00,,FEW,0.00,0.00,VWS V14.01,2013-03-14 03:29:00,
2013-03-13 23:30:00,68.6,61.8,30.11,NNW,333,10.0,11.0,79,0.00,,FEW,0.00,0.00,VWS V14.01,2013-03-14 03:30:00,
2013-03-13 23:32:00,68.6,61.5,30.11,North,351,6.0,11.0,78,0.00,,FEW,0.00,0.00,VWS V14.01,2013-03-14 03:32:00,
2013-03-13 23:33:00,68.6,61.8,30.11,NW,321,5.0,11.0,79,0.00,,FEW,0.00,0.00,VWS V14.01,2013-03-14 03:33:00,
2013-03-13 23:34:00,68.6,61.8,30.11,WNW,290,7.0,11.0,79,0.00,,FEW,0.00,0.00,VWS V14.01,2013-03-14 03:34:00,
2013-03-13 23:35:00,68.6,61.8,30.11,North,360,7.0,11.0,79,0.00,,FEW,0.00,0.00,VWS V14.01,2013-03-14 03:35:00,
2013-03-13 23:37:00,68.6,61.8,30.11,NNW,332,3.0,11.0,79,0.00,,FEW,0.00,0.00,VWS V14.01,2013-03-14 03:37:00,
2013-03-13 23:38:00,68.7,62.3,30.11,North,5,9.0,11.0,80,0.00,,FEW,0.00,0.00,VWS V14.01,2013-03-14 03:38:00,
2013-03-13 23:39:00,68.7,62.3,30.11,NNE,24,7.0,11.0,80,0.00,,FEW,0.00,0.00,VWS V14.01,2013-03-14 03:39:00,
2013-03-13 23:40:00,68.6,62.2,30.11,NNW,343,5.0,13.0,80,0.00,,FEW,0.00,0.00,VWS V14.01,2013-03-14 03:40:00,
2013-03-13 23:42:00,68.6,62.2,30.11,NW,326,10.0,10.0,80,0.00,,FEW,0.00,0.00,VWS V14.01,2013-03-14 03:42:00,
2013-03-13 23:43:00,68.6,62.2,30.11,NW,323,5.0,10.0,80,0.00,,FEW,0.00,0.00,VWS V14.01,2013-03-14 03:43:00,
2013-03-13 23:44:00,68.6,62.2,30.11,NNE,30,7.0,10.0,80,0.00,,FEW,0.00,0.00,VWS V14.01,2013-03-14 03:44:00,
2013-03-13 23:45:00,68.6,62.2,30.11,NW,323,7.0,11.0,80,0.00,,FEW,0.00,0.00,VWS V14.01,2013-03-14 03:45:00,
2013-03-13 23:47:00,68.5,62.1,30.11,NW,319,11.0,11.0,80,0.00,,FEW,0.00,0.00,VWS V14.01,2013-03-14 03:47:00,
2013-03-13 23:48:00,68.5,62.1,30.11,NNW,348,11.0,12.0,80,0.00,,FEW,0.00,0.00,VWS V14.01,2013-03-14 03:48:00,
2013-03-13 23:49:00,68.5,62.1,30.11,North,5,7.0,14.0,80,0.00,,FEW,0.00,0.00,VWS V14.01,2013-03-14 03:49:00,
2013-03-13 23:50:00,68.5,62.1,30.11,North,355,11.0,14.0,80,0.00,,FEW,0.00,0.00,VWS V14.01,2013-03-14 03:50:00,
2013-03-13 23:52:00,68.4,62.0,30.11,NNW,329,7.0,10.0,80,0.00,,FEW,0.00,0.00,VWS V14.01,2013-03-14 03:52:00,
2013-03-13 23:54:00,68.3,61.9,30.11,NNW,346,5.0,12.0,80,0.00,,FEW,0.00,0.00,VWS V14.01,2013-03-14 03:54:00,
2013-03-13 23:56:00,68.2,61.5,30.11,North,350,7.0,12.0,79,0.00,,FEW,0.00,0.00,VWS V14.01,2013-03-14 03:56:00,
2013-03-13 23:57:00,68.2,61.5,30.11,NNW,337,13.0,13.0,79,0.00,,FEW,0.00,0.00,VWS V14.01,2013-03-14 03:57:00,
2013-03-13 23:59:00,68.2,61.8,30.11,NNW,327,10.0,13.0,80,0.00,,FEW,0.00,0.00,VWS V14.01,2013-03-14 03:59:00,